Wetterdaten: Dienstag, 04.10.2011
Datum Zeit Temp. Innen Temp. Aussen UV X Diff Temp. Feuchte Inne Feuchte Auss Sonnenschein Luftdruck Regen ab 0,1 Wind Sonnenschein T Regendauer Windben
04.10.2011 00:00 23,6 C 19,5 C 0,0 UV-I 0,0 C 53 % 67 % 0 % 1020,1 hPa 0,0 l/m 2,0 km/h (1 Bft) 0 min 0 min 7,7 km/h (2 Bft)
04.10.2011 00:02 23,6 C 19,5 C 0,0 UV-I 0,0 C 53 % 67 % 0 % 1020,1 hPa 0,0 l/m 2,0 km/h (1 Bft) 0 min 0 min 7,7 km/h (2 Bft)
04.10.2011 00:04 23,6 C 19,5 C 0,0 UV-I 0,0 C 53 % 67 % 0 % 1020,1 hPa 0,0 l/m 2,0 km/h (1 Bft) 0 min 0 min 0,0 km/h (0 Bft)
04.10.2011 00:06 23,5 C 19,4 C 0,0 UV-I 0,0 C 53 % 67 % 0 % 1019,9 hPa 0,0 l/m 0,4 km/h (0 Bft) 0 min 0 min 0,0 km/h (0 Bft)
04.10.2011 00:08 23,6 C 19,3 C 0,0 UV-I 0,0 C 53 % 67 % 0 % 1019,9 hPa 0,0 l/m 0,4 km/h (0 Bft) 0 min 0 min 0,0 km/h (0 Bft)
04.10.2011 00:10 23,6 C 19,3 C 0,0 UV-I 0,0 C 53 % 67 % 0 % 1019,9 hPa 0,0 l/m 1,2 km/h (1 Bft) 0 min 0 min 0,0 km/h (0 Bft)
04.10.2011 00:12 23,6 C 19,2 C 0,0 UV-I 0,0 C 53 % 67 % 0 % 1019,9 hPa 0,0 l/m 0,8 km/h (0 Bft) 0 min 0 min 5,5 km/h (1 Bft)
04.10.2011 00:14 23,5 C 19,2 C 0,0 UV-I 0,0 C 53 % 67 % 0 % 1019,9 hPa 0,0 l/m 0,8 km/h (0 Bft) 0 min 0 min 5,5 km/h (1 Bft)
04.10.2011 00:16 23,5 C 19,2 C 0,0 UV-I 0,0 C 53 % 67 % 0 % 1019,9 hPa 0,0 l/m 1,6 km/h (1 Bft) 0 min 0 min 4,5 km/h (1 Bft)
04.10.2011 00:18 23,5 C 19,1 C 0,0 UV-I 0,0 C 53 % 68 % 0 % 1019,9 hPa 0,0 l/m 2,0 km/h (1 Bft) 0 min 0 min 4,5 km/h (1 Bft)
04.10.2011 00:20 23,5 C 19,1 C 0,0 UV-I 0,0 C 53 % 68 % 0 % 1019,9 hPa 0,0 l/m 2,0 km/h (1 Bft) 0 min 0 min 4,5 km/h (1 Bft)
04.10.2011 00:22 23,5 C 19,1 C 0,0 UV-I 0,0 C 53 % 68 % 0 % 1019,9 hPa 0,0 l/m 2,8 km/h (1 Bft) 0 min 0 min 4,5 km/h (1 Bft)
04.10.2011 00:24 23,5 C 19,1 C 0,0 UV-I 0,0 C 53 % 68 % 0 % 1019,9 hPa 0,0 l/m 2,8 km/h (1 Bft) 0 min 0 min 4,5 km/h (1 Bft)
04.10.2011 00:26 23,5 C 19,1 C 0,0 UV-I 0,0 C 53 % 68 % 0 % 1019,9 hPa 0,0 l/m 2,4 km/h (1 Bft) 0 min 0 min 3,2 km/h (1 Bft)
04.10.2011 00:28 23,5 C 19,1 C 0,0 UV-I 0,0 C 53 % 68 % 0 % 1019,9 hPa 0,0 l/m 2,4 km/h (1 Bft) 0 min 0 min 10,0 km/h (2 Bft)
04.10.2011 00:30 23,4 C 19,1 C 0,0 UV-I 0,0 C 53 % 68 % 0 % 1019,9 hPa 0,0 l/m 2,4 km/h (1 Bft) 0 min 0 min 0,0 km/h (0 Bft)
04.10.2011 00:32 23,4 C 19,0 C 0,0 UV-I 0,0 C 53 % 68 % 0 % 1019,9 hPa 0,0 l/m 1,6 km/h (1 Bft) 0 min 0 min 0,0 km/h (0 Bft)
04.10.2011 00:34 23,4 C 19,0 C 0,0 UV-I 0,0 C 53 % 68 % 0 % 1019,9 hPa 0,0 l/m 1,6 km/h (1 Bft) 0 min 0 min 0,0 km/h (0 Bft)
04.10.2011 00:36 23,4 C 19,1 C 0,0 UV-I 0,0 C 53 % 68 % 0 % 1019,9 hPa 0,0 l/m 1,2 km/h (1 Bft) 0 min 0 min 0,0 km/h (0 Bft)
04.10.2011 00:38 23,4 C 18,9 C 0,0 UV-I 0,0 C 53 % 68 % 0 % 1019,9 hPa 0,0 l/m 0,4 km/h (0 Bft) 0 min 0 min 0,0 km/h (0 Bft)
04.10.2011 00:40 23,4 C 18,9 C 0,0 UV-I 0,0 C 53 % 68 % 0 % 1019,9 hPa 0,0 l/m 0,8 km/h (0 Bft) 0 min 0 min 5,8 km/h (2 Bft)
04.10.2011 00:42 23,4 C 18,8 C 0,0 UV-I 0,0 C 53 % 68 % 0 % 1019,9 hPa 0,0 l/m 0,8 km/h (0 Bft) 0 min 0 min 0,0 km/h (0 Bft)
04.10.2011 00:44 23,4 C 18,9 C 0,0 UV-I 0,0 C 53 % 68 % 0 % 1019,9 hPa 0,0 l/m 0,8 km/h (0 Bft) 0 min 0 min 0,0 km/h (0 Bft)
04.10.2011 00:46 23,4 C 18,8 C 0,0 UV-I 0,0 C 53 % 68 % 0 % 1020,0 hPa 0,0 l/m 1,2 km/h (1 Bft) 0 min 0 min 0,0 km/h (0 Bft)
04.10.2011 00:48 23,4 C 18,8 C 0,0 UV-I 0,0 C 53 % 68 % 0 % 1020,0 hPa 0,0 l/m 1,2 km/h (1 Bft) 0 min 0 min 0,0 km/h (0 Bft)
04.10.2011 00:50 23,4 C 18,7 C 0,0 UV-I 0,0 C 53 % 68 % 0 % 1020,0 hPa 0,0 l/m 1,2 km/h (1 Bft) 0 min 0 min 0,0 km/h (0 Bft)
04.10.2011 00:52 23,4 C 18,7 C 0,0 UV-I 0,0 C 53 % 68 % 0 % 1020,0 hPa 0,0 l/m 0,8 km/h (0 Bft) 0 min 0 min 11,3 km/h (2 Bft)
04.10.2011 00:54 23,4 C 18,6 C 0,0 UV-I 0,0 C 53 % 69 % 0 % 1020,0 hPa 0,0 l/m 1,2 km/h (1 Bft) 0 min 0 min 0,0 km/h (0 Bft)
04.10.2011 00:56 23,2 C 18,6 C 0,0 UV-I 0,0 C 53 % 69 % 0 % 1020,0 hPa 0,0 l/m 1,2 km/h (1 Bft) 0 min 0 min 0,0 km/h (0 Bft)
04.10.2011 00:58 23,2 C 18,7 C 0,0 UV-I 0,0 C 53 % 69 % 0 % 1020,0 hPa 0,0 l/m 1,2 km/h (1 Bft) 0 min 0 min 11,3 km/h (2 Bft)
04.10.2011 01:00 23,2 C 18,6 C 0,0 UV-I 0,0 C 53 % 69 % 0 % 1020,0 hPa 0,0 l/m 1,2 km/h (1 Bft) 0 min 0 min 0,0 km/h (0 Bft)
04.10.2011 01:02 23,2 C 18,5 C 0,0 UV-I 0,0 C 53 % 69 % 0 % 1020,0 hPa 0,0 l/m 1,2 km/h (1 Bft) 0 min 0 min 0,0 km/h (0 Bft)
04.10.2011 01:04 23,2 C 18,5 C 0,0 UV-I 0,0 C 53 % 69 % 0 % 1020,0 hPa 0,0 l/m 1,2 km/h (1 Bft) 0 min 0 min 0,0 km/h (0 Bft)
04.10.2011 01:06 23,2 C 18,5 C 0,0 UV-I 0,0 C 53 % 69 % 0 % 1019,9 hPa 0,0 l/m 0,4 km/h (0 Bft) 0 min 0 min 0,0 km/h (0 Bft)
04.10.2011 01:08 23,2 C 18,5 C 0,0 UV-I 0,0 C 53 % 69 % 0 % 1019,9 hPa 0,0 l/m 0,4 km/h (0 Bft) 0 min 0 min 0,0 km/h (0 Bft)
04.10.2011 01:10 23,3 C 18,4 C 0,0 UV-I 0,0 C 53 % 69 % 0 % 1019,9 hPa 0,0 l/m 0,4 km/h (0 Bft) 0 min 0 min 5,1 km/h (1 Bft)
04.10.2011 01:12 23,2 C 18,5 C 0,0 UV-I 0,0 C 53 % 69 % 0 % 1019,9 hPa 0,0 l/m 0,4 km/h (0 Bft) 0 min 0 min 0,0 km/h (0 Bft)
04.10.2011 01:14 23,3 C 18,4 C 0,0 UV-I 0,0 C 53 % 69 % 0 % 1019,9 hPa 0,0 l/m 0,4 km/h (0 Bft) 0 min 0 min 0,0 km/h (0 Bft)
04.10.2011 01:16 23,3 C 18,4 C 0,0 UV-I 0,0 C 53 % 69 % 0 % 1019,9 hPa 0,0 l/m 0,4 km/h (0 Bft) 0 min 0 min 0,0 km/h (0 Bft)
04.10.2011 01:18 23,2 C 18,3 C 0,0 UV-I 0,0 C 53 % 69 % 0 % 1019,9 hPa 0,0 l/m 0,8 km/h (0 Bft) 0 min 0 min 0,0 km/h (0 Bft)
04.10.2011 01:20 23,2 C 18,3 C 0,0 UV-I 0,0 C 53 % 70 % 0 % 1019,9 hPa 0,0 l/m 1,2 km/h (1 Bft) 0 min 0 min 3,9 km/h (1 Bft)
04.10.2011 01:22 23,2 C 18,2 C 0,0 UV-I 0,0 C 53 % 70 % 0 % 1019,9 hPa 0,0 l/m 0,8 km/h (0 Bft) 0 min 0 min 0,0 km/h (0 Bft)
04.10.2011 01:24 23,2 C 18,2 C 0,0 UV-I 0,0 C 53 % 70 % 0 % 1019,9 hPa 0,0 l/m 0,8 km/h (0 Bft) 0 min 0 min 0,0 km/h (0 Bft)
04.10.2011 01:26 23,2 C 18,2 C 0,0 UV-I 0,0 C 53 % 70 % 0 % 1019,8 hPa 0,0 l/m 1,2 km/h (1 Bft) 0 min 0 min 0,0 km/h (0 Bft)
04.10.2011 01:28 23,2 C 18,3 C 0,0 UV-I 0,0 C 53 % 70 % 0 % 1019,8 hPa 0,0 l/m 0,8 km/h (0 Bft) 0 min 0 min 0,0 km/h (0 Bft)
04.10.2011 01:30 23,2 C 18,3 C 0,0 UV-I 0,0 C 53 % 70 % 0 % 1019,8 hPa 0,0 l/m 0,8 km/h (0 Bft) 0 min 0 min 0,0 km/h (0 Bft)
04.10.2011 01:32 23,2 C 18,2 C 0,0 UV-I 0,0 C 53 % 70 % 0 % 1019,8 hPa 0,0 l/m 0,8 km/h (0 Bft) 0 min 0 min 0,0 km/h (0 Bft)
04.10.2011 01:34 23,2 C 18,1 C 0,0 UV-I 0,0 C 53 % 70 % 0 % 1019,8 hPa 0,0 l/m 0,4 km/h (0 Bft) 0 min 0 min 0,0 km/h (0 Bft)
04.10.2011 01:36 23,2 C 18,1 C 0,0 UV-I 0,0 C 53 % 70 % 0 % 1019,8 hPa 0,0 l/m 0,4 km/h (0 Bft) 0 min 0 min 0,0 km/h (0 Bft)
04.10.2011 01:38 23,2 C 18,0 C 0,0 UV-I 0,0 C 53 % 70 % 0 % 1019,8 hPa 0,0 l/m 0,4 km/h (0 Bft) 0 min 0 min 3,2 km/h (1 Bft)
04.10.2011 01:40 23,2 C 18,1 C 0,0 UV-I 0,0 C 53 % 70 % 0 % 1019,8 hPa 0,0 l/m 0,4 km/h (0 Bft) 0 min 0 min 3,9 km/h (1 Bft)
04.10.2011 01:42 23,1 C 18,0 C 0,0 UV-I 0,0 C 53 % 70 % 0 % 1019,8 hPa 0,0 l/m 0,4 km/h (0 Bft) 0 min 0 min 0,0 km/h (0 Bft)
04.10.2011 01:44 23,1 C 18,0 C 0,0 UV-I 0,0 C 53 % 70 % 0 % 1019,8 hPa 0,0 l/m 0,4 km/h (0 Bft) 0 min 0 min 0,0 km/h (0 Bft)
04.10.2011 01:46 23,2 C 17,9 C 0,0 UV-I 0,0 C 53 % 70 % 0 % 1019,4 hPa 0,0 l/m 0,4 km/h (0 Bft) 0 min 0 min 0,0 km/h (0 Bft)
04.10.2011 01:48 23,1 C 17,8 C 0,0 UV-I 0,0 C 53 % 70 % 0 % 1019,4 hPa 0,0 l/m 0,8 km/h (0 Bft) 0 min 0 min 3,2 km/h (1 Bft)
04.10.2011 01:50 23,1 C 17,8 C 0,0 UV-I 0,0 C 53 % 70 % 0 % 1019,4 hPa 0,0 l/m 0,8 km/h (0 Bft) 0 min 0 min 0,0 km/h (0 Bft)
04.10.2011 01:52 23,1 C 17,9 C 0,0 UV-I 0,0 C 53 % 70 % 0 % 1019,4 hPa 0,0 l/m 0,8 km/h (0 Bft) 0 min 0 min 0,0 km/h (0 Bft)
04.10.2011 01:54 23,1 C 17,7 C 0,0 UV-I 0,0 C 53 % 71 % 0 % 1019,4 hPa 0,0 l/m 0,4 km/h (0 Bft) 0 min 0 min 0,0 km/h (0 Bft)
04.10.2011 01:56 23,1 C 17,7 C 0,0 UV-I 0,0 C 53 % 71 % 0 % 1019,4 hPa 0,0 l/m 0,4 km/h (0 Bft) 0 min 0 min 0,0 km/h (0 Bft)
04.10.2011 01:58 23,1 C 17,6 C 0,0 UV-I 0,0 C 53 % 71 % 0 % 1019,4 hPa 0,0 l/m 0,4 km/h (0 Bft) 0 min 0 min 0,0 km/h (0 Bft)
04.10.2011 02:00 23,1 C 17,7 C 0,0 UV-I 0,0 C 53 % 71 % 0 % 1019,4 hPa 0,0 l/m 0,4 km/h (0 Bft) 0 min 0 min 0,0 km/h (0 Bft)
04.10.2011 02:02 23,1 C 17,6 C 0,0 UV-I 0,0 C 53 % 71 % 0 % 1019,4 hPa 0,0 l/m 0,4 km/h (0 Bft) 0 min 0 min 0,0 km/h (0 Bft)
04.10.2011 02:04 23,1 C 17,5 C 0,0 UV-I 0,0 C 53 % 71 % 0 % 1019,4 hPa 0,0 l/m 0,4 km/h (0 Bft) 0 min 0 min 0,0 km/h (0 Bft)
04.10.2011 02:06 23,1 C 17,4 C 0,0 UV-I 0,0 C 53 % 71 % 0 % 1019,5 hPa 0,0 l/m 0,4 km/h (0 Bft) 0 min 0 min 0,0 km/h (0 Bft)
04.10.2011 02:08 23,1 C 17,4 C 0,0 UV-I 0,0 C 53 % 71 % 0 % 1019,5 hPa 0,0 l/m 0,4 km/h (0 Bft) 0 min 0 min 0,0 km/h (0 Bft)
04.10.2011 02:10 23,1 C 17,3 C 0,0 UV-I 0,0 C 53 % 71 % 0 % 1019,5 hPa 0,0 l/m 0,4 km/h (0 Bft) 0 min 0 min 0,0 km/h (0 Bft)
04.10.2011 02:12 23,1 C 17,2 C 0,0 UV-I 0,0 C 53 % 72 % 0 % 1019,5 hPa 0,0 l/m 0,0 km/h (0 Bft) 0 min 0 min 0,0 km/h (0 Bft)
04.10.2011 02:14 23,1 C 17,2 C 0,0 UV-I 0,0 C 53 % 72 % 0 % 1019,5 hPa 0,0 l/m 0,0 km/h (0 Bft) 0 min 0 min 0,0 km/h (0 Bft)
04.10.2011 02:16 23,1 C 17,1 C 0,0 UV-I 0,0 C 53 % 72 % 0 % 1019,5 hPa 0,0 l/m 0,0 km/h (0 Bft) 0 min 0 min 0,0 km/h (0 Bft)
04.10.2011 02:18 23,1 C 17,0 C 0,0 UV-I 0,0 C 54 % 72 % 0 % 1019,5 hPa 0,0 l/m 0,0 km/h (0 Bft) 0 min 0 min 0,0 km/h (0 Bft)
04.10.2011 02:20 23,0 C 16,9 C 0,0 UV-I 0,0 C 54 % 72 % 0 % 1019,5 hPa 0,0 l/m 0,0 km/h (0 Bft) 0 min 0 min 0,0 km/h (0 Bft)
04.10.2011 02:22 23,0 C 16,8 C 0,0 UV-I 0,0 C 54 % 72 % 0 % 1019,5 hPa 0,0 l/m 0,0 km/h (0 Bft) 0 min 0 min 0,0 km/h (0 Bft)
04.10.2011 02:24 23,0 C 16,8 C 0,0 UV-I 0,0 C 54 % 72 % 0 % 1019,5 hPa 0,0 l/m 0,0 km/h (0 Bft) 0 min 0 min 0,0 km/h (0 Bft)
04.10.2011 02:26 23,0 C 16,7 C 0,0 UV-I 0,0 C 54 % 73 % 0 % 1019,4 hPa 0,0 l/m 0,0 km/h (0 Bft) 0 min 0 min 0,0 km/h (0 Bft)
04.10.2011 02:28 23,1 C 16,7 C 0,0 UV-I 0,0 C 54 % 73 % 0 % 1019,4 hPa 0,0 l/m 0,0 km/h (0 Bft) 0 min 0 min 0,0 km/h (0 Bft)
04.10.2011 02:30 23,0 C 16,7 C 0,0 UV-I 0,0 C 54 % 73 % 0 % 1019,4 hPa 0,0 l/m 0,0 km/h (0 Bft) 0 min 0 min 0,0 km/h (0 Bft)
04.10.2011 02:32 23,0 C 16,5 C 0,0 UV-I 0,0 C 54 % 73 % 0 % 1019,4 hPa 0,0 l/m 0,0 km/h (0 Bft) 0 min 0 min 0,0 km/h (0 Bft)
04.10.2011 02:34 23,0 C 16,4 C 0,0 UV-I 0,0 C 54 % 73 % 0 % 1019,4 hPa 0,0 l/m 0,0 km/h (0 Bft) 0 min 0 min 0,0 km/h (0 Bft)
04.10.2011 02:36 23,0 C 16,5 C 0,0 UV-I 0,0 C 54 % 74 % 0 % 1019,4 hPa 0,0 l/m 0,0 km/h (0 Bft) 0 min 0 min 0,0 km/h (0 Bft)
04.10.2011 02:38 23,0 C 16,4 C 0,0 UV-I 0,0 C 54 % 74 % 0 % 1019,4 hPa 0,0 l/m 0,0 km/h (0 Bft) 0 min 0 min 0,0 km/h (0 Bft)
04.10.2011 02:40 23,0 C 16,3 C 0,0 UV-I 0,0 C 54 % 74 % 0 % 1019,4 hPa 0,0 l/m 0,0 km/h (0 Bft) 0 min 0 min 0,0 km/h (0 Bft)
04.10.2011 02:42 23,0 C 16,3 C 0,0 UV-I 0,0 C 54 % 74 % 0 % 1019,4 hPa 0,0 l/m 0,0 km/h (0 Bft) 0 min 0 min 0,0 km/h (0 Bft)
04.10.2011 02:44 23,0 C 16,3 C 0,0 UV-I 0,0 C 54 % 74 % 0 % 1019,4 hPa 0,0 l/m 0,0 km/h (0 Bft) 0 min 0 min 0,0 km/h (0 Bft)
04.10.2011 02:46 23,0 C 16,1 C 0,0 UV-I 0,0 C 54 % 74 % 0 % 1019,4 hPa 0,0 l/m 0,0 km/h (0 Bft) 0 min 0 min 0,0 km/h (0 Bft)
04.10.2011 02:48 23,0 C 16,1 C 0,0 UV-I 0,0 C 54 % 74 % 0 % 1019,4 hPa 0,0 l/m 0,0 km/h (0 Bft) 0 min 0 min 0,0 km/h (0 Bft)
04.10.2011 02:50 23,0 C 16,0 C 0,0 UV-I 0,0 C 54 % 75 % 0 % 1019,4 hPa 0,0 l/m 0,0 km/h (0 Bft) 0 min 0 min 0,0 km/h (0 Bft)
04.10.2011 02:52 22,9 C 16,1 C 0,0 UV-I 0,0 C 54 % 75 % 0 % 1019,4 hPa 0,0 l/m 0,0 km/h (0 Bft) 0 min 0 min 0,0 km/h (0 Bft)
04.10.2011 02:54 22,9 C 16,0 C 0,0 UV-I 0,0 C 54 % 75 % 0 % 1019,4 hPa 0,0 l/m 0,0 km/h (0 Bft) 0 min 0 min 0,0 km/h (0 Bft)
04.10.2011 02:56 22,9 C 15,9 C 0,0 UV-I 0,0 C 54 % 75 % 0 % 1019,4 hPa 0,0 l/m 0,0 km/h (0 Bft) 0 min 0 min 0,0 km/h (0 Bft)
04.10.2011 02:58 22,9 C 15,9 C 0,0 UV-I 0,0 C 54 % 75 % 0 % 1019,4 hPa 0,0 l/m 0,0 km/h (0 Bft) 0 min 0 min 0,0 km/h (0 Bft)
04.10.2011 03:00 22,9 C 15,8 C 0,0 UV-I 0,0 C 54 % 76 % 0 % 1019,4 hPa 0,0 l/m 0,0 km/h (0 Bft) 0 min 0 min 0,0 km/h (0 Bft)
04.10.2011 03:02 22,9 C 15,9 C 0,0 UV-I 0,0 C 54 % 76 % 0 % 1019,4 hPa 0,0 l/m 0,0 km/h (0 Bft) 0 min 0 min 0,0 km/h (0 Bft)
04.10.2011 03:04 22,9 C 15,9 C 0,0 UV-I 0,0 C 54 % 76 % 0 % 1019,4 hPa 0,0 l/m 0,0 km/h (0 Bft) 0 min 0 min 0,0 km/h (0 Bft)
04.10.2011 03:06 22,9 C 15,7 C 0,0 UV-I 0,0 C 54 % 76 % 0 % 1018,8 hPa 0,0 l/m 0,4 km/h (0 Bft) 0 min 0 min 0,0 km/h (0 Bft)
04.10.2011 03:08 22,9 C 15,7 C 0,0 UV-I 0,0 C 54 % 76 % 0 % 1018,8 hPa 0,0 l/m 0,4 km/h (0 Bft) 0 min 0 min 0,0 km/h (0 Bft)
04.10.2011 03:10 22,9 C 15,7 C 0,0 UV-I 0,0 C 54 % 76 % 0 % 1018,8 hPa 0,0 l/m 0,4 km/h (0 Bft) 0 min 0 min 0,0 km/h (0 Bft)
04.10.2011 03:12 22,9 C 15,7 C 0,0 UV-I 0,0 C 54 % 76 % 0 % 1018,8 hPa 0,0 l/m 0,4 km/h (0 Bft) 0 min 0 min 0,0 km/h (0 Bft)
04.10.2011 03:14 22,9 C 15,6 C 0,0 UV-I 0,0 C 54 % 76 % 0 % 1018,8 hPa 0,0 l/m 0,4 km/h (0 Bft) 0 min 0 min 0,0 km/h (0 Bft)
04.10.2011 03:16 22,8 C 15,7 C 0,0 UV-I 0,0 C 54 % 76 % 0 % 1018,8 hPa 0,0 l/m 0,0 km/h (0 Bft) 0 min 0 min 0,0 km/h (0 Bft)
04.10.2011 03:18 22,8 C 15,7 C 0,0 UV-I 0,0 C 54 % 76 % 0 % 1018,8 hPa 0,0 l/m 0,0 km/h (0 Bft) 0 min 0 min 3,5 km/h (1 Bft)
04.10.2011 03:20 22,8 C 15,6 C 0,0 UV-I 0,0 C 54 % 77 % 0 % 1018,8 hPa 0,0 l/m 0,0 km/h (0 Bft) 0 min 0 min 0,0 km/h (0 Bft)
04.10.2011 03:22 22,8 C 15,6 C 0,0 UV-I 0,0 C 54 % 77 % 0 % 1018,8 hPa 0,0 l/m 0,0 km/h (0 Bft) 0 min 0 min 0,0 km/h (0 Bft)
04.10.2011 03:24 22,8 C 15,7 C 0,0 UV-I 0,0 C 54 % 77 % 0 % 1018,8 hPa 0,0 l/m 0,0 km/h (0 Bft) 0 min 0 min 0,0 km/h (0 Bft)
04.10.2011 03:26 22,8 C 15,6 C 0,0 UV-I 0,0 C 54 % 77 % 0 % 1019,2 hPa 0,0 l/m 0,4 km/h (0 Bft) 0 min 0 min 3,5 km/h (1 Bft)
04.10.2011 03:28 22,8 C 15,6 C 0,0 UV-I 0,0 C 54 % 77 % 0 % 1019,2 hPa 0,0 l/m 0,4 km/h (0 Bft) 0 min 0 min 0,0 km/h (0 Bft)
04.10.2011 03:30 22,8 C 15,7 C 0,0 UV-I 0,0 C 54 % 77 % 0 % 1019,2 hPa 0,0 l/m 0,0 km/h (0 Bft) 0 min 0 min 0,0 km/h (0 Bft)
04.10.2011 03:32 22,8 C 15,7 C 0,0 UV-I 0,0 C 54 % 77 % 0 % 1019,2 hPa 0,0 l/m 0,0 km/h (0 Bft) 0 min 0 min 0,0 km/h (0 Bft)
04.10.2011 03:34 22,8 C 15,8 C 0,0 UV-I 0,0 C 54 % 77 % 0 % 1019,2 hPa 0,0 l/m 0,0 km/h (0 Bft) 0 min 0 min 0,0 km/h (0 Bft)
04.10.2011 03:36 22,8 C 15,8 C 0,0 UV-I 0,0 C 54 % 77 % 0 % 1019,2 hPa 0,0 l/m 0,0 km/h (0 Bft) 0 min 0 min 0,0 km/h (0 Bft)
04.10.2011 03:38 22,8 C 15,9 C 0,0 UV-I 0,0 C 54 % 77 % 0 % 1019,2 hPa 0,0 l/m 0,0 km/h (0 Bft) 0 min 0 min 0,0 km/h (0 Bft)
04.10.2011 03:40 22,8 C 15,9 C 0,0 UV-I 0,0 C 54 % 77 % 0 % 1019,2 hPa 0,0 l/m 0,4 km/h (0 Bft) 0 min 0 min 5,5 km/h (1 Bft)
04.10.2011 03:42 22,8 C 15,8 C 0,0 UV-I 0,0 C 53 % 77 % 0 % 1019,2 hPa 0,0 l/m 0,8 km/h (0 Bft) 0 min 0 min 0,0 km/h (0 Bft)
04.10.2011 03:44 22,8 C 15,9 C 0,0 UV-I 0,0 C 53 % 77 % 0 % 1019,2 hPa 0,0 l/m 0,8 km/h (0 Bft) 0 min 0 min 0,0 km/h (0 Bft)
04.10.2011 03:46 22,8 C 15,9 C 0,0 UV-I 0,0 C 53 % 77 % 0 % 1018,9 hPa 0,0 l/m 0,8 km/h (0 Bft) 0 min 0 min 0,0 km/h (0 Bft)
04.10.2011 03:48 22,8 C 16,0 C 0,0 UV-I 0,0 C 53 % 77 % 0 % 1018,9 hPa 0,0 l/m 0,8 km/h (0 Bft) 0 min 0 min 0,0 km/h (0 Bft)
04.10.2011 03:50 22,8 C 16,0 C 0,0 UV-I 0,0 C 53 % 77 % 0 % 1018,9 hPa 0,0 l/m 0,8 km/h (0 Bft) 0 min 0 min 0,0 km/h (0 Bft)
04.10.2011 03:52 22,7 C 16,0 C 0,0 UV-I 0,0 C 53 % 77 % 0 % 1018,9 hPa 0,0 l/m 0,4 km/h (0 Bft) 0 min 0 min 0,0 km/h (0 Bft)
04.10.2011 03:54 22,7 C 16,1 C 0,0 UV-I 0,0 C 53 % 77 % 0 % 1018,9 hPa 0,0 l/m 0,8 km/h (0 Bft) 0 min 0 min 0,0 km/h (0 Bft)
04.10.2011 03:56 22,7 C 16,2 C 0,0 UV-I 0,0 C 53 % 77 % 0 % 1018,9 hPa 0,0 l/m 1,2 km/h (1 Bft) 0 min 0 min 0,0 km/h (0 Bft)
04.10.2011 03:58 22,7 C 16,2 C 0,0 UV-I 0,0 C 53 % 76 % 0 % 1018,9 hPa 0,0 l/m 0,8 km/h (0 Bft) 0 min 0 min 0,0 km/h (0 Bft)
04.10.2011 04:00 22,7 C 16,3 C 0,0 UV-I 0,0 C 53 % 76 % 0 % 1018,9 hPa 0,0 l/m 0,8 km/h (0 Bft) 0 min 0 min 0,0 km/h (0 Bft)
04.10.2011 04:02 22,7 C 16,4 C 0,0 UV-I 0,0 C 53 % 76 % 0 % 1018,9 hPa 0,0 l/m 1,2 km/h (1 Bft) 0 min 0 min 0,0 km/h (0 Bft)
04.10.2011 04:04 22,6 C 16,4 C 0,0 UV-I 0,0 C 53 % 76 % 0 % 1018,9 hPa 0,0 l/m 1,2 km/h (1 Bft) 0 min 0 min 0,0 km/h (0 Bft)
04.10.2011 04:06 22,6 C 16,4 C 0,0 UV-I 0,0 C 53 % 76 % 0 % 1019,1 hPa 0,0 l/m 0,4 km/h (0 Bft) 0 min 0 min 0,0 km/h (0 Bft)
04.10.2011 04:08 22,6 C 16,5 C 0,0 UV-I 0,0 C 53 % 75 % 0 % 1019,1 hPa 0,0 l/m 0,8 km/h (0 Bft) 0 min 0 min 0,0 km/h (0 Bft)
04.10.2011 04:10 22,6 C 16,5 C 0,0 UV-I 0,0 C 53 % 75 % 0 % 1019,1 hPa 0,0 l/m 0,8 km/h (0 Bft) 0 min 0 min 0,0 km/h (0 Bft)
04.10.2011 04:12 22,6 C 16,6 C 0,0 UV-I 0,0 C 53 % 75 % 0 % 1019,1 hPa 0,0 l/m 0,8 km/h (0 Bft) 0 min 0 min 0,0 km/h (0 Bft)
04.10.2011 04:14 22,6 C 16,7 C 0,0 UV-I 0,0 C 53 % 75 % 0 % 1019,1 hPa 0,0 l/m 1,2 km/h (1 Bft) 0 min 0 min 4,2 km/h (1 Bft)
04.10.2011 04:16 22,6 C 16,7 C 0,0 UV-I 0,0 C 53 % 75 % 0 % 1019,1 hPa 0,0 l/m 1,2 km/h (1 Bft) 0 min 0 min 4,5 km/h (1 Bft)
04.10.2011 04:18 22,6 C 16,7 C 0,0 UV-I 0,0 C 53 % 75 % 0 % 1019,1 hPa 0,0 l/m 1,2 km/h (1 Bft) 0 min 0 min 0,0 km/h (0 Bft)
04.10.2011 04:20 22,6 C 16,7 C 0,0 UV-I 0,0 C 53 % 75 % 0 % 1019,1 hPa 0,0 l/m 1,2 km/h (1 Bft) 0 min 0 min 0,0 km/h (0 Bft)
04.10.2011 04:22 22,6 C 16,7 C 0,0 UV-I 0,0 C 53 % 74 % 0 % 1019,1 hPa 0,0 l/m 1,6 km/h (1 Bft) 0 min 0 min 0,0 km/h (0 Bft)
04.10.2011 04:24 22,6 C 16,7 C 0,0 UV-I 0,0 C 53 % 74 % 0 % 1019,1 hPa 0,0 l/m 1,6 km/h (1 Bft) 0 min 0 min 0,0 km/h (0 Bft)
04.10.2011 04:26 22,6 C 16,8 C 0,0 UV-I 0,0 C 53 % 74 % 0 % 1018,8 hPa 0,0 l/m 2,0 km/h (1 Bft) 0 min 0 min 5,1 km/h (1 Bft)
04.10.2011 04:28 22,6 C 16,9 C 0,0 UV-I 0,0 C 53 % 74 % 0 % 1018,8 hPa 0,0 l/m 1,2 km/h (1 Bft) 0 min 0 min 16,4 km/h (3 Bft)
04.10.2011 04:30 22,6 C 16,8 C 0,0 UV-I 0,0 C 53 % 74 % 0 % 1018,8 hPa 0,0 l/m 1,2 km/h (1 Bft) 0 min 0 min 0,0 km/h (0 Bft)
04.10.2011 04:32 22,6 C 16,8 C 0,0 UV-I 0,0 C 53 % 73 % 0 % 1018,8 hPa 0,0 l/m 2,0 km/h (1 Bft) 0 min 0 min 7,7 km/h (2 Bft)
04.10.2011 04:34 22,6 C 16,9 C 0,0 UV-I 0,0 C 53 % 73 % 0 % 1018,8 hPa 0,0 l/m 2,4 km/h (1 Bft) 0 min 0 min 3,9 km/h (1 Bft)
04.10.2011 04:36 22,6 C 16,9 C 0,0 UV-I 0,0 C 53 % 73 % 0 % 1018,8 hPa 0,0 l/m 3,2 km/h (1 Bft) 0 min 0 min 4,2 km/h (1 Bft)
04.10.2011 04:38 22,6 C 17,0 C 0,0 UV-I 0,0 C 53 % 73 % 0 % 1018,8 hPa 0,0 l/m 2,0 km/h (1 Bft) 0 min 0 min 0,0 km/h (0 Bft)
04.10.2011 04:40 22,6 C 17,1 C 0,0 UV-I 0,0 C 53 % 73 % 0 % 1018,8 hPa 0,0 l/m 2,4 km/h (1 Bft) 0 min 0 min 0,0 km/h (0 Bft)
04.10.2011 04:42 22,6 C 17,0 C 0,0 UV-I 0,0 C 53 % 73 % 0 % 1018,8 hPa 0,0 l/m 2,8 km/h (1 Bft) 0 min 0 min 4,5 km/h (1 Bft)
04.10.2011 04:44 22,6 C 17,1 C 0,0 UV-I 0,0 C 53 % 72 % 0 % 1018,8 hPa 0,0 l/m 2,8 km/h (1 Bft) 0 min 0 min 4,5 km/h (1 Bft)
04.10.2011 04:46 22,5 C 17,2 C 0,0 UV-I 0,0 C 52 % 73 % 0 % 1018,5 hPa 0,0 l/m 2,4 km/h (1 Bft) 0 min 0 min 0,0 km/h (0 Bft)
04.10.2011 04:48 22,6 C 17,2 C 0,0 UV-I 0,0 C 52 % 73 % 0 % 1018,5 hPa 0,0 l/m 2,8 km/h (1 Bft) 0 min 0 min 3,5 km/h (1 Bft)
04.10.2011 04:50 22,5 C 17,3 C 0,0 UV-I 0,0 C 52 % 72 % 0 % 1018,5 hPa 0,0 l/m 3,2 km/h (1 Bft) 0 min 0 min 0,0 km/h (0 Bft)
04.10.2011 04:52 22,5 C 17,3 C 0,0 UV-I 0,0 C 53 % 72 % 0 % 1018,5 hPa 0,0 l/m 2,8 km/h (1 Bft) 0 min 0 min 0,0 km/h (0 Bft)
04.10.2011 04:54 22,5 C 17,3 C 0,0 UV-I 0,0 C 53 % 72 % 0 % 1018,5 hPa 0,0 l/m 2,0 km/h (1 Bft) 0 min 0 min 0,0 km/h (0 Bft)
04.10.2011 04:56 22,5 C 17,2 C 0,0 UV-I 0,0 C 52 % 72 % 0 % 1018,5 hPa 0,0 l/m 1,6 km/h (1 Bft) 0 min 0 min 0,0 km/h (0 Bft)
04.10.2011 04:58 22,5 C 17,2 C 0,0 UV-I 0,0 C 53 % 72 % 0 % 1018,5 hPa 0,0 l/m 1,2 km/h (1 Bft) 0 min 0 min 0,0 km/h (0 Bft)
04.10.2011 05:00 22,5 C 17,2 C 0,0 UV-I 0,0 C 52 % 72 % 0 % 1018,5 hPa 0,0 l/m 1,2 km/h (1 Bft) 0 min 0 min 3,5 km/h (1 Bft)
04.10.2011 05:02 22,5 C 17,2 C 0,0 UV-I 0,0 C 53 % 72 % 0 % 1018,5 hPa 0,0 l/m 2,0 km/h (1 Bft) 0 min 0 min 0,0 km/h (0 Bft)
04.10.2011 05:04 22,5 C 17,2 C 0,0 UV-I 0,0 C 52 % 72 % 0 % 1018,5 hPa 0,0 l/m 2,0 km/h (1 Bft) 0 min 0 min 0,0 km/h (0 Bft)
04.10.2011 05:06 22,5 C 17,2 C 0,0 UV-I 0,0 C 52 % 72 % 0 % 1018,6 hPa 0,0 l/m 2,4 km/h (1 Bft) 0 min 0 min 0,0 km/h (0 Bft)
04.10.2011 05:08 22,5 C 17,1 C 0,0 UV-I 0,0 C 52 % 72 % 0 % 1018,6 hPa 0,0 l/m 2,8 km/h (1 Bft) 0 min 0 min 9,7 km/h (2 Bft)
04.10.2011 05:10 22,5 C 17,2 C 0,0 UV-I 0,0 C 52 % 72 % 0 % 1018,6 hPa 0,0 l/m 2,4 km/h (1 Bft) 0 min 0 min 0,0 km/h (0 Bft)
04.10.2011 05:12 22,5 C 17,2 C 0,0 UV-I 0,0 C 52 % 72 % 0 % 1018,6 hPa 0,0 l/m 2,0 km/h (1 Bft) 0 min 0 min 4,5 km/h (1 Bft)
04.10.2011 05:14 22,4 C 17,2 C 0,0 UV-I 0,0 C 52 % 72 % 0 % 1018,6 hPa 0,0 l/m 2,4 km/h (1 Bft) 0 min 0 min 3,9 km/h (1 Bft)
04.10.2011 05:16 22,4 C 17,3 C 0,0 UV-I 0,0 C 53 % 71 % 0 % 1018,6 hPa 0,0 l/m 2,4 km/h (1 Bft) 0 min 0 min 0,0 km/h (0 Bft)
04.10.2011 05:18 22,5 C 17,3 C 0,0 UV-I 0,0 C 52 % 71 % 0 % 1018,6 hPa 0,0 l/m 2,4 km/h (1 Bft) 0 min 0 min 0,0 km/h (0 Bft)
04.10.2011 05:20 22,4 C 17,2 C 0,0 UV-I 0,0 C 52 % 71 % 0 % 1018,6 hPa 0,0 l/m 2,0 km/h (1 Bft) 0 min 0 min 6,1 km/h (2 Bft)
04.10.2011 05:22 22,4 C 17,3 C 0,0 UV-I 0,0 C 52 % 71 % 0 % 1018,6 hPa 0,0 l/m 2,4 km/h (1 Bft) 0 min 0 min 6,1 km/h (2 Bft)
04.10.2011 05:24 22,4 C 17,2 C 0,0 UV-I 0,0 C 52 % 71 % 0 % 1018,6 hPa 0,0 l/m 2,4 km/h (1 Bft) 0 min 0 min 6,1 km/h (2 Bft)
04.10.2011 05:26 22,4 C 17,2 C 0,0 UV-I 0,0 C 52 % 71 % 0 % 1018,2 hPa 0,0 l/m 1,6 km/h (1 Bft) 0 min 0 min 4,5 km/h (1 Bft)
04.10.2011 05:28 22,4 C 17,2 C 0,0 UV-I 0,0 C 52 % 71 % 0 % 1018,2 hPa 0,0 l/m 2,0 km/h (1 Bft) 0 min 0 min 0,0 km/h (0 Bft)
04.10.2011 05:30 22,4 C 17,2 C 0,0 UV-I 0,0 C 52 % 71 % 0 % 1018,2 hPa 0,0 l/m 2,0 km/h (1 Bft) 0 min 0 min 3,2 km/h (1 Bft)
04.10.2011 05:32 22,4 C 17,2 C 0,0 UV-I 0,0 C 52 % 71 % 0 % 1018,2 hPa 0,0 l/m 2,0 km/h (1 Bft) 0 min 0 min 0,0 km/h (0 Bft)
04.10.2011 05:34 22,4 C 17,3 C 0,0 UV-I 0,0 C 52 % 71 % 0 % 1018,2 hPa 0,0 l/m 1,6 km/h (1 Bft) 0 min 0 min 0,0 km/h (0 Bft)
04.10.2011 05:36 22,4 C 17,2 C 0,0 UV-I 0,0 C 52 % 71 % 0 % 1018,2 hPa 0,0 l/m 2,4 km/h (1 Bft) 0 min 0 min 3,2 km/h (1 Bft)
04.10.2011 05:38 22,4 C 17,2 C 0,0 UV-I 0,0 C 52 % 71 % 0 % 1018,2 hPa 0,0 l/m 1,6 km/h (1 Bft) 0 min 0 min 3,5 km/h (1 Bft)
04.10.2011 05:40 22,4 C 17,2 C 0,0 UV-I 0,0 C 52 % 71 % 0 % 1018,2 hPa 0,0 l/m 2,0 km/h (1 Bft) 0 min 0 min 0,0 km/h (0 Bft)
04.10.2011 05:42 22,4 C 17,3 C 0,0 UV-I 0,0 C 52 % 71 % 0 % 1018,2 hPa 0,0 l/m 2,0 km/h (1 Bft) 0 min 0 min 0,0 km/h (0 Bft)
04.10.2011 05:44 22,4 C 17,3 C 0,0 UV-I 0,0 C 52 % 71 % 0 % 1018,2 hPa 0,0 l/m 2,0 km/h (1 Bft) 0 min 0 min 0,0 km/h (0 Bft)
04.10.2011 05:46 22,4 C 17,3 C 0,0 UV-I 0,0 C 52 % 71 % 0 % 1018,4 hPa 0,0 l/m 2,0 km/h (1 Bft) 0 min 0 min 4,2 km/h (1 Bft)
04.10.2011 05:48 22,4 C 17,2 C 0,0 UV-I 0,0 C 52 % 71 % 0 % 1018,4 hPa 0,0 l/m 2,4 km/h (1 Bft) 0 min 0 min 0,0 km/h (0 Bft)
04.10.2011 05:50 22,4 C 17,3 C 0,0 UV-I 0,0 C 52 % 71 % 0 % 1018,4 hPa 0,0 l/m 1,6 km/h (1 Bft) 0 min 0 min 0,0 km/h (0 Bft)
04.10.2011 05:52 22,4 C 17,3 C 0,0 UV-I 0,0 C 52 % 71 % 0 % 1018,4 hPa 0,0 l/m 2,0 km/h (1 Bft) 0 min 0 min 3,5 km/h (1 Bft)
04.10.2011 05:54 22,4 C 17,2 C 0,0 UV-I 0,0 C 52 % 71 % 0 % 1018,4 hPa 0,0 l/m 2,0 km/h (1 Bft) 0 min 0 min 0,0 km/h (0 Bft)
04.10.2011 05:56 22,4 C 17,2 C 0,0 UV-I 0,0 C 52 % 71 % 0 % 1018,4 hPa 0,0 l/m 1,6 km/h (1 Bft) 0 min 0 min 5,1 km/h (1 Bft)
04.10.2011 05:58 22,4 C 17,2 C 0,0 UV-I 0,0 C 52 % 70 % 0 % 1018,4 hPa 0,0 l/m 1,6 km/h (1 Bft) 0 min 0 min 4,5 km/h (1 Bft)
04.10.2011 06:00 22,4 C 17,1 C 0,0 UV-I 0,0 C 52 % 71 % 0 % 1018,4 hPa 0,0 l/m 1,6 km/h (1 Bft) 0 min 0 min 0,0 km/h (0 Bft)
04.10.2011 06:02 22,4 C 17,1 C 0,0 UV-I 0,0 C 52 % 71 % 0 % 1018,4 hPa 0,0 l/m 2,0 km/h (1 Bft) 0 min 0 min 4,2 km/h (1 Bft)
04.10.2011 06:04 22,4 C 17,1 C 0,0 UV-I 0,0 C 52 % 71 % 0 % 1018,4 hPa 0,0 l/m 2,0 km/h (1 Bft) 0 min 0 min 4,2 km/h (1 Bft)
04.10.2011 06:06 22,4 C 17,2 C 0,0 UV-I 0,0 C 52 % 70 % 0 % 1018,7 hPa 0,0 l/m 2,8 km/h (1 Bft) 0 min 0 min 3,5 km/h (1 Bft)
04.10.2011 06:08 22,4 C 17,2 C 0,0 UV-I 0,0 C 52 % 70 % 0 % 1018,7 hPa 0,0 l/m 2,4 km/h (1 Bft) 0 min 0 min 7,4 km/h (2 Bft)
04.10.2011 06:10 22,2 C 17,2 C 0,0 UV-I 0,0 C 52 % 70 % 0 % 1018,7 hPa 0,0 l/m 2,8 km/h (1 Bft) 0 min 0 min 8,4 km/h (2 Bft)
04.10.2011 06:12 22,4 C 17,2 C 0,0 UV-I 0,0 C 52 % 70 % 0 % 1018,7 hPa 0,0 l/m 2,8 km/h (1 Bft) 0 min 0 min 7,7 km/h (2 Bft)
04.10.2011 06:14 22,4 C 17,2 C 0,0 UV-I 0,0 C 52 % 70 % 0 % 1018,7 hPa 0,0 l/m 2,0 km/h (1 Bft) 0 min 0 min 3,5 km/h (1 Bft)
04.10.2011 06:16 22,2 C 17,3 C 0,0 UV-I 0,0 C 52 % 70 % 0 % 1018,7 hPa 0,0 l/m 2,0 km/h (1 Bft) 0 min 0 min 3,5 km/h (1 Bft)
04.10.2011 06:18 22,2 C 17,2 C 0,0 UV-I 0,0 C 52 % 70 % 0 % 1018,7 hPa 0,0 l/m 2,4 km/h (1 Bft) 0 min 0 min 0,0 km/h (0 Bft)
04.10.2011 06:20 22,2 C 17,2 C 0,0 UV-I 0,0 C 52 % 70 % 0 % 1018,7 hPa 0,0 l/m 2,8 km/h (1 Bft) 0 min 0 min 0,0 km/h (0 Bft)
04.10.2011 06:22 22,2 C 17,3 C 0,0 UV-I 0,0 C 52 % 70 % 0 % 1018,7 hPa 0,0 l/m 2,4 km/h (1 Bft) 0 min 0 min 6,4 km/h (2 Bft)
04.10.2011 06:24 22,2 C 17,2 C 0,0 UV-I 0,0 C 52 % 70 % 0 % 1018,7 hPa 0,0 l/m 2,4 km/h (1 Bft) 0 min 0 min 6,4 km/h (2 Bft)
04.10.2011 06:26 22,3 C 17,2 C 0,0 UV-I 0,0 C 52 % 70 % 0 % 1018,1 hPa 0,0 l/m 2,4 km/h (1 Bft) 0 min 0 min 8,4 km/h (2 Bft)
04.10.2011 06:28 22,3 C 17,2 C 0,0 UV-I 0,0 C 52 % 70 % 0 % 1018,1 hPa 0,0 l/m 3,2 km/h (1 Bft) 0 min 0 min 7,4 km/h (2 Bft)
04.10.2011 06:30 22,3 C 17,3 C 0,0 UV-I 0,0 C 52 % 70 % 0 % 1018,1 hPa 0,0 l/m 3,2 km/h (1 Bft) 0 min 0 min 8,7 km/h (2 Bft)
04.10.2011 06:32 22,3 C 17,3 C 0,0 UV-I 0,0 C 52 % 70 % 0 % 1018,1 hPa 0,0 l/m 3,6 km/h (1 Bft) 0 min 0 min 6,1 km/h (2 Bft)
04.10.2011 06:34 22,3 C 17,3 C 0,0 UV-I 0,0 C 52 % 70 % 0 % 1018,1 hPa 0,0 l/m 3,6 km/h (1 Bft) 0 min 0 min 3,5 km/h (1 Bft)
04.10.2011 06:36 22,3 C 17,2 C 0,0 UV-I 0,0 C 52 % 70 % 0 % 1018,1 hPa 0,0 l/m 4,4 km/h (1 Bft) 0 min 0 min 9,7 km/h (2 Bft)
04.10.2011 06:38 22,3 C 17,2 C 0,0 UV-I 0,0 C 52 % 70 % 0 % 1018,1 hPa 0,0 l/m 4,8 km/h (1 Bft) 0 min 0 min 5,1 km/h (1 Bft)
04.10.2011 06:40 22,2 C 17,3 C 0,0 UV-I 0,0 C 52 % 70 % 0 % 1018,1 hPa 0,0 l/m 4,8 km/h (1 Bft) 0 min 0 min 11,6 km/h (2 Bft)
04.10.2011 06:42 22,3 C 17,3 C 0,0 UV-I 0,0 C 52 % 69 % 0 % 1018,1 hPa 0,0 l/m 4,0 km/h (1 Bft) 0 min 0 min 0,0 km/h (0 Bft)
04.10.2011 06:44 22,2 C 17,3 C 0,0 UV-I 0,0 C 52 % 69 % 0 % 1018,1 hPa 0,0 l/m 4,0 km/h (1 Bft) 0 min 0 min 0,0 km/h (0 Bft)
04.10.2011 06:46 22,2 C 17,3 C 0,0 UV-I 0,0 C 52 % 69 % 0 % 1018,2 hPa 0,0 l/m 3,2 km/h (1 Bft) 0 min 0 min 7,7 km/h (2 Bft)
04.10.2011 06:48 22,2 C 17,2 C 0,0 UV-I 0,0 C 52 % 69 % 0 % 1018,2 hPa 0,0 l/m 2,0 km/h (1 Bft) 0 min 0 min 0,0 km/h (0 Bft)
04.10.2011 06:50 22,2 C 17,2 C 0,0 UV-I 0,0 C 52 % 69 % 0 % 1018,2 hPa 0,0 l/m 2,0 km/h (1 Bft) 0 min 0 min 6,4 km/h (2 Bft)
04.10.2011 06:52 22,2 C 17,1 C 0,0 UV-I 0,0 C 52 % 69 % 0 % 1018,2 hPa 0,0 l/m 2,0 km/h (1 Bft) 0 min 0 min 4,5 km/h (1 Bft)
04.10.2011 06:54 22,2 C 17,1 C 0,0 UV-I 0,0 C 52 % 69 % 0 % 1018,2 hPa 0,0 l/m 2,4 km/h (1 Bft) 0 min 0 min 0,0 km/h (0 Bft)
04.10.2011 06:56 22,2 C 17,1 C 0,0 UV-I 0,0 C 52 % 69 % 0 % 1018,2 hPa 0,0 l/m 2,4 km/h (1 Bft) 0 min 0 min 3,5 km/h (1 Bft)
04.10.2011 06:58 22,2 C 17,1 C 0,0 UV-I 0,0 C 52 % 69 % 0 % 1018,2 hPa 0,0 l/m 2,0 km/h (1 Bft) 0 min 0 min 0,0 km/h (0 Bft)
04.10.2011 07:00 22,2 C 17,0 C 0,0 UV-I 0,0 C 52 % 69 % 0 % 1018,2 hPa 0,0 l/m 2,0 km/h (1 Bft) 0 min 0 min 0,0 km/h (0 Bft)
04.10.2011 07:02 22,2 C 17,1 C 0,0 UV-I 0,0 C 52 % 70 % 0 % 1018,2 hPa 0,0 l/m 1,6 km/h (1 Bft) 0 min 0 min 0,0 km/h (0 Bft)
04.10.2011 07:04 22,2 C 17,0 C 0,0 UV-I 0,0 C 52 % 70 % 0 % 1018,2 hPa 0,0 l/m 1,6 km/h (1 Bft) 0 min 0 min 0,0 km/h (0 Bft)
04.10.2011 07:06 22,2 C 16,9 C 0,0 UV-I 0,0 C 52 % 70 % 0 % 1018,6 hPa 0,0 l/m 0,8 km/h (0 Bft) 0 min 0 min 0,0 km/h (0 Bft)
04.10.2011 07:08 22,2 C 16,8 C 0,0 UV-I 0,0 C 52 % 70 % 0 % 1018,6 hPa 0,0 l/m 0,8 km/h (0 Bft) 0 min 0 min 0,0 km/h (0 Bft)
04.10.2011 07:10 22,2 C 16,8 C 0,0 UV-I 0,0 C 52 % 70 % 0 % 1018,6 hPa 0,0 l/m 0,4 km/h (0 Bft) 0 min 0 min 0,0 km/h (0 Bft)
04.10.2011 07:12 22,2 C 16,8 C 0,0 UV-I 0,0 C 52 % 70 % 0 % 1018,6 hPa 0,0 l/m 0,4 km/h (0 Bft) 0 min 0 min 0,0 km/h (0 Bft)
04.10.2011 07:14 22,2 C 16,7 C 0,0 UV-I 0,0 C 52 % 70 % 0 % 1018,6 hPa 0,0 l/m 0,4 km/h (0 Bft) 0 min 0 min 3,9 km/h (1 Bft)
04.10.2011 07:16 22,2 C 16,7 C 0,0 UV-I 0,0 C 52 % 70 % 0 % 1018,6 hPa 0,0 l/m 0,4 km/h (0 Bft) 0 min 0 min 0,0 km/h (0 Bft)
04.10.2011 07:18 22,2 C 16,7 C 0,0 UV-I 0,0 C 52 % 70 % 0 % 1018,6 hPa 0,0 l/m 0,8 km/h (0 Bft) 0 min 0 min 5,1 km/h (1 Bft)
04.10.2011 07:20 22,2 C 16,5 C 0,0 UV-I 0,0 C 52 % 71 % 0 % 1018,6 hPa 0,0 l/m 1,2 km/h (1 Bft) 0 min 0 min 0,0 km/h (0 Bft)
04.10.2011 07:22 22,2 C 16,4 C 0,0 UV-I 0,0 C 52 % 71 % 0 % 1018,6 hPa 0,0 l/m 1,2 km/h (1 Bft) 0 min 0 min 0,0 km/h (0 Bft)
04.10.2011 07:24 22,2 C 16,4 C 0,0 UV-I 0,0 C 52 % 71 % 0 % 1018,6 hPa 0,0 l/m 1,2 km/h (1 Bft) 0 min 0 min 0,0 km/h (0 Bft)
04.10.2011 07:26 22,2 C 16,4 C 0,0 UV-I 0,0 C 52 % 71 % 0 % 1018,4 hPa 0,0 l/m 1,2 km/h (1 Bft) 0 min 0 min 0,0 km/h (0 Bft)
04.10.2011 07:28 22,2 C 16,3 C 0,0 UV-I 0,0 C 52 % 71 % 0 % 1018,4 hPa 0,0 l/m 0,8 km/h (0 Bft) 0 min 0 min 0,0 km/h (0 Bft)
04.10.2011 07:30 22,2 C 16,3 C 0,0 UV-I 0,0 C 52 % 71 % 0 % 1018,4 hPa 0,0 l/m 0,4 km/h (0 Bft) 0 min 0 min 0,0 km/h (0 Bft)
04.10.2011 07:32 22,2 C 16,3 C 0,0 UV-I 0,0 C 52 % 71 % 0 % 1018,4 hPa 0,0 l/m 0,4 km/h (0 Bft) 0 min 0 min 3,9 km/h (1 Bft)
04.10.2011 07:34 22,2 C 16,3 C 0,0 UV-I 0,0 C 52 % 72 % 0 % 1018,4 hPa 0,0 l/m 0,8 km/h (0 Bft) 0 min 0 min 0,0 km/h (0 Bft)
04.10.2011 07:36 22,2 C 16,3 C 0,0 UV-I 0,0 C 52 % 72 % 0 % 1018,4 hPa 0,0 l/m 0,8 km/h (0 Bft) 0 min 0 min 0,0 km/h (0 Bft)
04.10.2011 07:38 22,2 C 16,2 C 0,0 UV-I 0,0 C 52 % 72 % 0 % 1018,4 hPa 0,0 l/m 0,8 km/h (0 Bft) 0 min 0 min 6,1 km/h (2 Bft)
04.10.2011 07:40 22,2 C 16,3 C 0,0 UV-I 0,0 C 52 % 72 % 0 % 1018,4 hPa 0,0 l/m 0,8 km/h (0 Bft) 0 min 0 min 0,0 km/h (0 Bft)
04.10.2011 07:42 22,2 C 16,1 C 0,0 UV-I 0,0 C 52 % 72 % 0 % 1018,4 hPa 0,0 l/m 0,8 km/h (0 Bft) 0 min 0 min 0,0 km/h (0 Bft)
04.10.2011 07:44 22,1 C 16,1 C 0,0 UV-I 0,0 C 52 % 72 % 0 % 1018,4 hPa 0,0 l/m 0,8 km/h (0 Bft) 0 min 0 min 0,0 km/h (0 Bft)
04.10.2011 07:46 22,2 C 16,1 C 0,0 UV-I 0,0 C 52 % 72 % 0 % 1018,6 hPa 0,0 l/m 0,4 km/h (0 Bft) 0 min 0 min 0,0 km/h (0 Bft)
04.10.2011 07:48 22,2 C 16,0 C 0,0 UV-I 0,0 C 52 % 72 % 0 % 1018,6 hPa 0,0 l/m 0,4 km/h (0 Bft) 0 min 0 min 0,0 km/h (0 Bft)
04.10.2011 07:50 22,2 C 16,0 C 0,0 UV-I 0,0 C 52 % 72 % 0 % 1018,6 hPa 0,0 l/m 0,0 km/h (0 Bft) 0 min 0 min 0,0 km/h (0 Bft)
04.10.2011 07:52 22,1 C 16,1 C 0,0 UV-I 0,0 C 52 % 73 % 0 % 1018,6 hPa 0,0 l/m 0,0 km/h (0 Bft) 0 min 0 min 0,0 km/h (0 Bft)
04.10.2011 07:54 22,2 C 16,0 C 0,0 UV-I 0,0 C 52 % 73 % 0 % 1018,6 hPa 0,0 l/m 0,0 km/h (0 Bft) 0 min 0 min 0,0 km/h (0 Bft)
04.10.2011 07:56 22,2 C 15,9 C 0,0 UV-I 0,0 C 52 % 73 % 0 % 1018,6 hPa 0,0 l/m 0,0 km/h (0 Bft) 0 min 0 min 0,0 km/h (0 Bft)
04.10.2011 07:58 22,2 C 15,9 C 0,0 UV-I 0,0 C 52 % 73 % 0 % 1018,6 hPa 0,0 l/m 0,0 km/h (0 Bft) 0 min 0 min 0,0 km/h (0 Bft)
04.10.2011 08:00 22,2 C 15,8 C 0,0 UV-I 0,0 C 52 % 73 % 0 % 1018,6 hPa 0,0 l/m 0,0 km/h (0 Bft) 0 min 0 min 0,0 km/h (0 Bft)
04.10.2011 08:02 22,2 C 15,9 C 0,0 UV-I 0,0 C 53 % 73 % 0 % 1018,6 hPa 0,0 l/m 0,0 km/h (0 Bft) 0 min 0 min 0,0 km/h (0 Bft)
04.10.2011 08:04 22,2 C 15,7 C 0,0 UV-I 0,0 C 53 % 73 % 0 % 1018,6 hPa 0,0 l/m 0,0 km/h (0 Bft) 0 min 0 min 0,0 km/h (0 Bft)
04.10.2011 08:06 22,2 C 15,7 C 0,0 UV-I 0,0 C 53 % 74 % 0 % 1018,9 hPa 0,0 l/m 0,0 km/h (0 Bft) 0 min 0 min 0,0 km/h (0 Bft)
04.10.2011 08:08 22,2 C 15,7 C 0,0 UV-I 0,0 C 53 % 74 % 0 % 1018,9 hPa 0,0 l/m 0,0 km/h (0 Bft) 0 min 0 min 0,0 km/h (0 Bft)
04.10.2011 08:10 22,2 C 15,6 C 0,0 UV-I 0,0 C 53 % 73 % 0 % 1018,9 hPa 0,0 l/m 0,0 km/h (0 Bft) 0 min 0 min 0,0 km/h (0 Bft)
04.10.2011 08:12 22,2 C 15,7 C 0,0 UV-I 0,0 C 53 % 74 % 0 % 1018,9 hPa 0,0 l/m 0,4 km/h (0 Bft) 0 min 0 min 3,5 km/h (1 Bft)
04.10.2011 08:14 22,2 C 15,6 C 0,0 UV-I 0,0 C 53 % 74 % 0 % 1018,9 hPa 0,0 l/m 0,8 km/h (0 Bft) 0 min 0 min 0,0 km/h (0 Bft)
04.10.2011 08:16 22,2 C 15,7 C 0,0 UV-I 0,0 C 53 % 74 % 0 % 1018,9 hPa 0,0 l/m 0,8 km/h (0 Bft) 0 min 0 min 0,0 km/h (0 Bft)
04.10.2011 08:18 22,2 C 15,6 C 0,0 UV-I 0,0 C 53 % 74 % 0 % 1018,9 hPa 0,0 l/m 0,8 km/h (0 Bft) 0 min 0 min 0,0 km/h (0 Bft)
04.10.2011 08:20 22,1 C 15,6 C 0,0 UV-I 0,0 C 53 % 74 % 0 % 1018,9 hPa 0,0 l/m 0,8 km/h (0 Bft) 0 min 0 min 0,0 km/h (0 Bft)
04.10.2011 08:22 22,2 C 15,6 C 0,0 UV-I 0,0 C 53 % 75 % 0 % 1018,9 hPa 0,0 l/m 0,4 km/h (0 Bft) 0 min 0 min 0,0 km/h (0 Bft)
04.10.2011 08:24 22,2 C 15,5 C 0,0 UV-I 0,0 C 53 % 75 % 0 % 1018,9 hPa 0,0 l/m 0,4 km/h (0 Bft) 0 min 0 min 0,0 km/h (0 Bft)
04.10.2011 08:26 22,2 C 15,6 C 0,0 UV-I 0,0 C 53 % 75 % 0 % 1019,3 hPa 0,0 l/m 0,0 km/h (0 Bft) 0 min 0 min 0,0 km/h (0 Bft)
04.10.2011 08:28 22,2 C 15,6 C 0,0 UV-I 0,0 C 53 % 75 % 0 % 1019,3 hPa 0,0 l/m 0,8 km/h (0 Bft) 0 min 0 min 0,0 km/h (0 Bft)
04.10.2011 08:30 22,2 C 15,6 C 0,0 UV-I 0,0 C 53 % 76 % 0 % 1019,3 hPa 0,0 l/m 0,8 km/h (0 Bft) 0 min 0 min 0,0 km/h (0 Bft)
04.10.2011 08:32 22,2 C 15,7 C 0,0 UV-I 0,0 C 53 % 76 % 0 % 1019,3 hPa 0,0 l/m 1,2 km/h (1 Bft) 0 min 0 min 4,2 km/h (1 Bft)
04.10.2011 08:34 22,2 C 15,6 C 0,0 UV-I 0,0 C 53 % 76 % 0 % 1019,3 hPa 0,0 l/m 1,2 km/h (1 Bft) 0 min 0 min 0,0 km/h (0 Bft)
04.10.2011 08:36 22,2 C 15,7 C 0,0 UV-I 0,2 C 53 % 76 % 6 % 1019,3 hPa 0,0 l/m 1,6 km/h (1 Bft) 0 min 0 min 0,0 km/h (0 Bft)
04.10.2011 08:38 22,2 C 15,7 C 0,0 UV-I 0,4 C 53 % 76 % 11 % 1019,3 hPa 0,0 l/m 2,0 km/h (1 Bft) 0 min 0 min 0,0 km/h (0 Bft)
04.10.2011 08:40 22,2 C 15,9 C 0,0 UV-I 0,4 C 53 % 76 % 11 % 1019,3 hPa 0,0 l/m 2,8 km/h (1 Bft) 0 min 0 min 9,0 km/h (2 Bft)
04.10.2011 08:42 22,2 C 15,9 C 0,0 UV-I 0,9 C 53 % 76 % 26 % 1019,3 hPa 0,0 l/m 2,8 km/h (1 Bft) 0 min 0 min 3,9 km/h (1 Bft)
04.10.2011 08:44 22,2 C 15,9 C 0,0 UV-I 0,9 C 53 % 77 % 26 % 1019,3 hPa 0,0 l/m 2,8 km/h (1 Bft) 0 min 0 min 3,9 km/h (1 Bft)
04.10.2011 08:46 22,2 C 16,1 C 0,0 UV-I 1,4 C 53 % 77 % 40 % 1019,0 hPa 0,0 l/m 2,8 km/h (1 Bft) 0 min 0 min 3,9 km/h (1 Bft)
04.10.2011 08:48 22,2 C 16,0 C 0,0 UV-I 1,8 C 53 % 77 % 51 % 1019,0 hPa 0,0 l/m 3,2 km/h (1 Bft) 2 min 0 min 12,6 km/h (3 Bft)
04.10.2011 08:50 22,2 C 16,1 C 0,0 UV-I 1,6 C 53 % 77 % 46 % 1019,0 hPa 0,0 l/m 3,2 km/h (1 Bft) 2 min 0 min 7,7 km/h (2 Bft)
04.10.2011 08:52 22,2 C 16,1 C 0,0 UV-I 1,4 C 53 % 77 % 40 % 1019,0 hPa 0,0 l/m 2,8 km/h (1 Bft) 0 min 0 min 0,0 km/h (0 Bft)
04.10.2011 08:54 22,2 C 16,1 C 0,0 UV-I 1,2 C 53 % 77 % 34 % 1019,0 hPa 0,0 l/m 2,0 km/h (1 Bft) 0 min 0 min 0,0 km/h (0 Bft)
04.10.2011 08:56 22,2 C 16,1 C 0,0 UV-I 1,1 C 53 % 77 % 31 % 1019,0 hPa 0,0 l/m 2,0 km/h (1 Bft) 0 min 0 min 4,8 km/h (1 Bft)
04.10.2011 08:58 22,2 C 16,1 C 0,0 UV-I 1,0 C 53 % 77 % 29 % 1019,0 hPa 0,0 l/m 1,6 km/h (1 Bft) 0 min 0 min 0,0 km/h (0 Bft)
04.10.2011 09:00 22,2 C 16,2 C 0,0 UV-I 0,8 C 53 % 77 % 23 % 1019,0 hPa 0,0 l/m 0,8 km/h (0 Bft) 0 min 0 min 5,1 km/h (1 Bft)
04.10.2011 09:02 22,2 C 16,3 C 0,0 UV-I 0,6 C 54 % 77 % 17 % 1019,0 hPa 0,0 l/m 0,4 km/h (0 Bft) 0 min 0 min 0,0 km/h (0 Bft)
04.10.2011 09:04 22,2 C 16,3 C 0,0 UV-I 0,6 C 54 % 77 % 17 % 1019,0 hPa 0,0 l/m 0,4 km/h (0 Bft) 0 min 0 min 0,0 km/h (0 Bft)
04.10.2011 09:06 22,2 C 16,2 C 0,0 UV-I 0,6 C 54 % 77 % 17 % 1019,6 hPa 0,0 l/m 1,2 km/h (1 Bft) 0 min 0 min 4,8 km/h (1 Bft)
04.10.2011 09:08 22,2 C 16,2 C 0,0 UV-I 0,6 C 54 % 77 % 17 % 1019,6 hPa 0,0 l/m 1,2 km/h (1 Bft) 0 min 0 min 0,0 km/h (0 Bft)
04.10.2011 09:10 22,2 C 16,3 C 0,0 UV-I 0,4 C 54 % 77 % 11 % 1019,6 hPa 0,0 l/m 1,2 km/h (1 Bft) 0 min 0 min 0,0 km/h (0 Bft)
04.10.2011 09:12 22,2 C 16,2 C 0,0 UV-I 0,5 C 54 % 77 % 14 % 1019,6 hPa 0,0 l/m 1,6 km/h (1 Bft) 0 min 0 min 13,8 km/h (3 Bft)
04.10.2011 09:14 22,2 C 16,3 C 0,0 UV-I 0,5 C 54 % 77 % 14 % 1019,6 hPa 0,0 l/m 1,6 km/h (1 Bft) 0 min 0 min 0,0 km/h (0 Bft)
04.10.2011 09:16 22,2 C 16,3 C 0,0 UV-I 0,5 C 54 % 77 % 14 % 1019,6 hPa 0,0 l/m 1,6 km/h (1 Bft) 0 min 0 min 3,9 km/h (1 Bft)
04.10.2011 09:18 22,2 C 16,3 C 0,0 UV-I 0,5 C 54 % 77 % 14 % 1019,6 hPa 0,0 l/m 1,2 km/h (1 Bft) 0 min 0 min 0,0 km/h (0 Bft)
04.10.2011 09:20 22,2 C 16,4 C 0,0 UV-I 0,5 C 54 % 77 % 14 % 1019,6 hPa 0,0 l/m 1,6 km/h (1 Bft) 0 min 0 min 4,5 km/h (1 Bft)
04.10.2011 09:22 22,2 C 16,4 C 0,0 UV-I 0,6 C 54 % 77 % 17 % 1019,6 hPa 0,0 l/m 2,4 km/h (1 Bft) 0 min 0 min 0,0 km/h (0 Bft)
04.10.2011 09:24 22,2 C 16,4 C 0,1 UV-I 0,6 C 54 % 78 % 17 % 1019,6 hPa 0,0 l/m 2,4 km/h (1 Bft) 0 min 0 min 0,0 km/h (0 Bft)
04.10.2011 09:26 22,2 C 16,4 C 0,1 UV-I 0,6 C 54 % 78 % 17 % 1019,8 hPa 0,0 l/m 2,0 km/h (1 Bft) 0 min 0 min 0,0 km/h (0 Bft)
04.10.2011 09:28 22,2 C 16,4 C 0,1 UV-I 0,7 C 54 % 78 % 20 % 1019,8 hPa 0,0 l/m 2,0 km/h (1 Bft) 0 min 0 min 3,2 km/h (1 Bft)
04.10.2011 09:30 22,2 C 16,4 C 0,0 UV-I 0,7 C 54 % 78 % 20 % 1019,8 hPa 0,0 l/m 2,4 km/h (1 Bft) 0 min 0 min 8,7 km/h (2 Bft)
04.10.2011 09:32 22,2 C 16,5 C 0,0 UV-I 0,6 C 54 % 78 % 17 % 1019,8 hPa 0,0 l/m 2,0 km/h (1 Bft) 0 min 0 min 0,0 km/h (0 Bft)
04.10.2011 09:34 22,2 C 16,5 C 0,0 UV-I 0,6 C 55 % 79 % 17 % 1019,8 hPa 0,0 l/m 1,6 km/h (1 Bft) 0 min 0 min 0,0 km/h (0 Bft)
04.10.2011 09:36 22,2 C 16,5 C 0,0 UV-I 0,6 C 55 % 79 % 17 % 1019,8 hPa 0,0 l/m 2,0 km/h (1 Bft) 0 min 0 min 7,4 km/h (2 Bft)
04.10.2011 09:38 22,2 C 16,5 C 0,0 UV-I 0,6 C 55 % 79 % 17 % 1019,8 hPa 0,0 l/m 2,8 km/h (1 Bft) 0 min 0 min 5,5 km/h (1 Bft)
04.10.2011 09:40 22,2 C 16,5 C 0,0 UV-I 0,6 C 55 % 80 % 17 % 1019,8 hPa 0,0 l/m 3,2 km/h (1 Bft) 0 min 0 min 7,1 km/h (2 Bft)
04.10.2011 09:42 22,2 C 16,5 C 0,0 UV-I 0,6 C 55 % 79 % 17 % 1019,8 hPa 0,0 l/m 2,8 km/h (1 Bft) 0 min 0 min 0,0 km/h (0 Bft)
04.10.2011 09:44 22,2 C 16,5 C 0,0 UV-I 0,6 C 55 % 79 % 17 % 1019,8 hPa 0,0 l/m 2,8 km/h (1 Bft) 0 min 0 min 0,0 km/h (0 Bft)
04.10.2011 09:46 22,2 C 16,5 C 0,0 UV-I 0,6 C 55 % 80 % 17 % 1020,1 hPa 0,0 l/m 3,2 km/h (1 Bft) 0 min 0 min 9,3 km/h (2 Bft)
04.10.2011 09:48 22,2 C 16,6 C 0,0 UV-I 0,5 C 55 % 80 % 14 % 1020,1 hPa 0,0 l/m 3,2 km/h (1 Bft) 0 min 0 min 6,4 km/h (2 Bft)
04.10.2011 09:50 22,2 C 16,6 C 0,0 UV-I 0,5 C 55 % 80 % 14 % 1020,1 hPa 0,0 l/m 3,6 km/h (1 Bft) 0 min 0 min 6,4 km/h (2 Bft)
04.10.2011 09:52 22,2 C 16,6 C 0,0 UV-I 0,5 C 55 % 80 % 14 % 1020,1 hPa 0,0 l/m 3,6 km/h (1 Bft) 0 min 0 min 6,4 km/h (2 Bft)
04.10.2011 09:54 22,2 C 16,6 C 0,0 UV-I 0,5 C 55 % 80 % 14 % 1020,1 hPa 0,0 l/m 3,6 km/h (1 Bft) 0 min 0 min 4,5 km/h (1 Bft)
04.10.2011 09:56 22,2 C 16,6 C 0,0 UV-I 0,5 C 55 % 81 % 14 % 1020,1 hPa 0,0 l/m 4,0 km/h (1 Bft) 0 min 0 min 3,9 km/h (1 Bft)
04.10.2011 09:58 22,2 C 16,6 C 0,0 UV-I 0,5 C 56 % 81 % 14 % 1020,1 hPa 0,0 l/m 3,2 km/h (1 Bft) 0 min 0 min 4,5 km/h (1 Bft)
04.10.2011 10:00 22,2 C 16,6 C 0,0 UV-I 0,5 C 56 % 81 % 14 % 1020,1 hPa 0,0 l/m 2,8 km/h (1 Bft) 0 min 0 min 0,0 km/h (0 Bft)
04.10.2011 10:02 22,2 C 16,6 C 0,0 UV-I 0,5 C 56 % 81 % 14 % 1020,1 hPa 0,0 l/m 1,6 km/h (1 Bft) 0 min 0 min 0,0 km/h (0 Bft)
04.10.2011 10:04 22,2 C 16,7 C 0,0 UV-I 0,4 C 56 % 81 % 11 % 1020,1 hPa 0,0 l/m 1,6 km/h (1 Bft) 0 min 0 min 0,0 km/h (0 Bft)
04.10.2011 10:06 22,2 C 16,7 C 0,0 UV-I 0,4 C 56 % 81 % 11 % 1020,4 hPa 0,0 l/m 1,2 km/h (1 Bft) 0 min 0 min 0,0 km/h (0 Bft)
04.10.2011 10:08 22,2 C 16,6 C 0,0 UV-I 0,5 C 56 % 81 % 14 % 1020,4 hPa 0,0 l/m 1,6 km/h (1 Bft) 0 min 0 min 10,0 km/h (2 Bft)
04.10.2011 10:10 22,2 C 16,7 C 0,0 UV-I 0,3 C 56 % 82 % 9 % 1020,4 hPa 0,0 l/m 1,6 km/h (1 Bft) 0 min 0 min 0,0 km/h (0 Bft)
04.10.2011 10:12 22,2 C 16,7 C 0,0 UV-I 0,3 C 56 % 82 % 9 % 1020,4 hPa 0,0 l/m 1,6 km/h (1 Bft) 0 min 0 min 5,5 km/h (1 Bft)
04.10.2011 10:14 22,2 C 16,7 C 0,0 UV-I 0,2 C 56 % 82 % 6 % 1020,4 hPa 0,0 l/m 2,8 km/h (1 Bft) 0 min 0 min 6,1 km/h (2 Bft)
04.10.2011 10:16 22,2 C 16,7 C 0,0 UV-I 0,1 C 56 % 82 % 3 % 1020,4 hPa 0,0 l/m 3,2 km/h (1 Bft) 0 min 0 min 4,8 km/h (1 Bft)
04.10.2011 10:18 22,2 C 16,7 C 0,0 UV-I 0,1 C 57 % 82 % 3 % 1020,4 hPa 0,0 l/m 4,0 km/h (1 Bft) 0 min 0 min 7,4 km/h (2 Bft)
04.10.2011 10:20 22,2 C 16,7 C 0,0 UV-I 0,1 C 57 % 82 % 3 % 1020,4 hPa 0,0 l/m 3,2 km/h (1 Bft) 0 min 0 min 5,1 km/h (1 Bft)
04.10.2011 10:22 22,2 C 16,6 C 0,0 UV-I 0,2 C 57 % 82 % 6 % 1020,4 hPa 0,0 l/m 3,6 km/h (1 Bft) 0 min 0 min 0,0 km/h (0 Bft)
04.10.2011 10:24 22,2 C 16,6 C 0,0 UV-I 0,2 C 57 % 82 % 6 % 1020,4 hPa 0,0 l/m 3,6 km/h (1 Bft) 0 min 0 min 0,0 km/h (0 Bft)
04.10.2011 10:26 22,2 C 16,7 C 0,0 UV-I 0,1 C 57 % 82 % 3 % 1020,2 hPa 0,0 l/m 3,2 km/h (1 Bft) 0 min 0 min 0,0 km/h (0 Bft)
04.10.2011 10:28 22,2 C 16,7 C 0,0 UV-I 0,1 C 57 % 82 % 3 % 1020,2 hPa 0,0 l/m 3,6 km/h (1 Bft) 0 min 0 min 6,8 km/h (2 Bft)
04.10.2011 10:30 22,2 C 16,6 C 0,0 UV-I 0,2 C 57 % 82 % 6 % 1020,2 hPa 0,0 l/m 3,6 km/h (1 Bft) 0 min 0 min 8,4 km/h (2 Bft)
04.10.2011 10:32 22,2 C 16,6 C 0,0 UV-I 0,2 C 57 % 82 % 6 % 1020,2 hPa 0,0 l/m 4,0 km/h (1 Bft) 0 min 0 min 5,8 km/h (2 Bft)
04.10.2011 10:34 22,2 C 16,6 C 0,0 UV-I 0,2 C 57 % 82 % 6 % 1020,2 hPa 0,0 l/m 3,6 km/h (1 Bft) 0 min 0 min 0,0 km/h (0 Bft)
04.10.2011 10:36 22,2 C 16,6 C 0,0 UV-I 0,3 C 57 % 82 % 9 % 1020,2 hPa 0,0 l/m 3,2 km/h (1 Bft) 0 min 0 min 4,8 km/h (1 Bft)
04.10.2011 10:38 22,2 C 16,7 C 0,0 UV-I 0,2 C 57 % 82 % 6 % 1020,2 hPa 0,0 l/m 4,0 km/h (1 Bft) 0 min 0 min 0,0 km/h (0 Bft)
04.10.2011 10:40 22,2 C 16,7 C 0,0 UV-I 0,3 C 57 % 83 % 9 % 1020,2 hPa 0,0 l/m 3,6 km/h (1 Bft) 0 min 0 min 6,4 km/h (2 Bft)
04.10.2011 10:42 22,2 C 16,6 C 0,0 UV-I 0,4 C 57 % 82 % 11 % 1020,2 hPa 0,0 l/m 3,2 km/h (1 Bft) 0 min 0 min 3,9 km/h (1 Bft)
04.10.2011 10:44 22,2 C 16,7 C 0,0 UV-I 0,3 C 57 % 83 % 9 % 1020,2 hPa 0,0 l/m 3,2 km/h (1 Bft) 0 min 0 min 3,9 km/h (1 Bft)
04.10.2011 10:46 22,2 C 16,7 C 0,0 UV-I 0,3 C 57 % 83 % 9 % 1020,4 hPa 0,0 l/m 3,6 km/h (1 Bft) 0 min 0 min 6,8 km/h (2 Bft)
04.10.2011 10:48 22,2 C 16,7 C 0,0 UV-I 0,3 C 58 % 83 % 9 % 1020,4 hPa 0,0 l/m 3,2 km/h (1 Bft) 0 min 0 min 6,4 km/h (2 Bft)
04.10.2011 10:50 22,2 C 16,8 C 0,1 UV-I 0,3 C 58 % 83 % 9 % 1020,4 hPa 0,0 l/m 4,4 km/h (1 Bft) 0 min 0 min 9,0 km/h (2 Bft)
04.10.2011 10:52 22,2 C 16,8 C 0,1 UV-I 0,4 C 58 % 83 % 11 % 1020,4 hPa 0,0 l/m 4,4 km/h (1 Bft) 0 min 0 min 6,4 km/h (2 Bft)
04.10.2011 10:54 22,2 C 16,8 C 0,2 UV-I 0,5 C 58 % 83 % 14 % 1020,4 hPa 0,0 l/m 3,6 km/h (1 Bft) 0 min 0 min 0,0 km/h (0 Bft)
04.10.2011 10:56 22,2 C 16,9 C 0,2 UV-I 0,6 C 58 % 83 % 17 % 1020,4 hPa 0,0 l/m 2,8 km/h (1 Bft) 0 min 0 min 0,0 km/h (0 Bft)
04.10.2011 10:58 22,2 C 16,8 C 0,2 UV-I 0,7 C 58 % 83 % 20 % 1020,4 hPa 0,0 l/m 2,8 km/h (1 Bft) 0 min 0 min 4,2 km/h (1 Bft)
04.10.2011 11:00 22,2 C 16,9 C 0,1 UV-I 0,7 C 58 % 83 % 20 % 1020,4 hPa 0,0 l/m 3,2 km/h (1 Bft) 0 min 0 min 6,8 km/h (2 Bft)
04.10.2011 11:02 22,1 C 16,9 C 0,1 UV-I 0,7 C 58 % 83 % 20 % 1020,4 hPa 0,0 l/m 3,2 km/h (1 Bft) 0 min 0 min 3,5 km/h (1 Bft)
04.10.2011 11:04 22,2 C 16,9 C 0,1 UV-I 0,7 C 58 % 83 % 20 % 1020,4 hPa 0,0 l/m 3,2 km/h (1 Bft) 0 min 0 min 3,5 km/h (1 Bft)
04.10.2011 11:06 22,2 C 16,9 C 0,1 UV-I 0,7 C 58 % 83 % 20 % 1020,6 hPa 0,0 l/m 3,6 km/h (1 Bft) 0 min 0 min 4,8 km/h (1 Bft)
04.10.2011 11:08 22,2 C 16,9 C 0,1 UV-I 0,7 C 58 % 83 % 20 % 1020,6 hPa 0,0 l/m 3,6 km/h (1 Bft) 0 min 0 min 5,5 km/h (1 Bft)
04.10.2011 11:10 22,1 C 16,9 C 0,1 UV-I 0,8 C 58 % 83 % 23 % 1020,6 hPa 0,0 l/m 3,6 km/h (1 Bft) 0 min 0 min 6,1 km/h (2 Bft)
04.10.2011 11:12 22,2 C 17,0 C 0,1 UV-I 0,8 C 58 % 84 % 23 % 1020,6 hPa 0,0 l/m 3,6 km/h (1 Bft) 0 min 0 min 8,7 km/h (2 Bft)
04.10.2011 11:14 22,2 C 17,1 C 0,1 UV-I 0,7 C 58 % 84 % 20 % 1020,6 hPa 0,0 l/m 3,6 km/h (1 Bft) 0 min 0 min 4,5 km/h (1 Bft)
04.10.2011 11:16 22,2 C 17,1 C 0,1 UV-I 0,7 C 59 % 83 % 20 % 1020,6 hPa 0,0 l/m 4,0 km/h (1 Bft) 0 min 0 min 7,7 km/h (2 Bft)
04.10.2011 11:18 22,2 C 17,1 C 0,1 UV-I 0,7 C 59 % 83 % 20 % 1020,6 hPa 0,0 l/m 4,0 km/h (1 Bft) 0 min 0 min 0,0 km/h (0 Bft)
04.10.2011 11:20 22,2 C 17,1 C 0,0 UV-I 0,7 C 59 % 83 % 20 % 1020,6 hPa 0,0 l/m 4,0 km/h (1 Bft) 0 min 0 min 5,5 km/h (1 Bft)
04.10.2011 11:22 22,2 C 17,1 C 0,0 UV-I 0,7 C 59 % 84 % 20 % 1020,6 hPa 0,0 l/m 3,2 km/h (1 Bft) 0 min 0 min 3,2 km/h (1 Bft)
04.10.2011 11:24 22,2 C 17,1 C 0,1 UV-I 0,7 C 59 % 84 % 20 % 1020,6 hPa 0,0 l/m 3,2 km/h (1 Bft) 0 min 0 min 3,2 km/h (1 Bft)
04.10.2011 11:26 22,2 C 17,1 C 0,1 UV-I 0,8 C 59 % 84 % 23 % 1020,4 hPa 0,0 l/m 2,0 km/h (1 Bft) 0 min 0 min 4,5 km/h (1 Bft)
04.10.2011 11:28 22,2 C 17,1 C 0,1 UV-I 0,8 C 59 % 84 % 23 % 1020,4 hPa 0,0 l/m 2,4 km/h (1 Bft) 0 min 0 min 7,4 km/h (2 Bft)
04.10.2011 11:30 22,2 C 17,1 C 0,0 UV-I 0,8 C 59 % 83 % 23 % 1020,4 hPa 0,0 l/m 2,8 km/h (1 Bft) 0 min 0 min 0,0 km/h (0 Bft)
04.10.2011 11:32 22,2 C 17,2 C 0,0 UV-I 0,6 C 59 % 84 % 17 % 1020,4 hPa 0,0 l/m 2,4 km/h (1 Bft) 0 min 0 min 6,4 km/h (2 Bft)
04.10.2011 11:34 22,2 C 17,2 C 0,0 UV-I 0,5 C 59 % 83 % 14 % 1020,4 hPa 0,0 l/m 3,2 km/h (1 Bft) 0 min 0 min 5,5 km/h (1 Bft)
04.10.2011 11:36 22,2 C 17,2 C 0,0 UV-I 0,5 C 59 % 83 % 14 % 1020,4 hPa 0,0 l/m 3,2 km/h (1 Bft) 0 min 0 min 0,0 km/h (0 Bft)
04.10.2011 11:38 22,2 C 17,3 C 0,0 UV-I 0,3 C 59 % 83 % 9 % 1020,4 hPa 0,0 l/m 3,2 km/h (1 Bft) 0 min 0 min 9,7 km/h (2 Bft)
04.10.2011 11:40 22,2 C 17,2 C 0,0 UV-I 0,4 C 59 % 83 % 11 % 1020,4 hPa 0,0 l/m 2,4 km/h (1 Bft) 0 min 0 min 5,1 km/h (1 Bft)
04.10.2011 11:42 22,2 C 17,2 C 0,0 UV-I 0,4 C 59 % 83 % 11 % 1020,4 hPa 0,0 l/m 2,4 km/h (1 Bft) 0 min 0 min 0,0 km/h (0 Bft)
04.10.2011 11:44 22,2 C 17,3 C 0,0 UV-I 0,3 C 59 % 83 % 9 % 1020,4 hPa 0,0 l/m 2,4 km/h (1 Bft) 0 min 0 min 0,0 km/h (0 Bft)
04.10.2011 11:46 22,2 C 17,3 C 0,0 UV-I 0,4 C 59 % 84 % 11 % 1020,8 hPa 0,0 l/m 3,2 km/h (1 Bft) 0 min 0 min 5,1 km/h (1 Bft)
04.10.2011 11:48 22,2 C 17,3 C 0,0 UV-I 0,4 C 59 % 84 % 11 % 1020,8 hPa 0,0 l/m 3,6 km/h (1 Bft) 0 min 0 min 0,0 km/h (0 Bft)
04.10.2011 11:50 22,2 C 17,3 C 0,0 UV-I 0,4 C 59 % 84 % 11 % 1020,8 hPa 0,0 l/m 3,6 km/h (1 Bft) 0 min 0 min 3,9 km/h (1 Bft)
04.10.2011 11:52 22,2 C 17,3 C 0,0 UV-I 0,4 C 59 % 84 % 11 % 1020,8 hPa 0,0 l/m 4,0 km/h (1 Bft) 0 min 0 min 6,1 km/h (2 Bft)
04.10.2011 11:54 22,2 C 17,3 C 0,1 UV-I 0,5 C 59 % 84 % 14 % 1020,8 hPa 0,0 l/m 4,4 km/h (1 Bft) 0 min 0 min 5,1 km/h (1 Bft)
04.10.2011 11:56 22,2 C 17,3 C 0,1 UV-I 0,5 C 60 % 84 % 14 % 1020,8 hPa 0,0 l/m 4,8 km/h (1 Bft) 0 min 0 min 5,8 km/h (2 Bft)
04.10.2011 11:58 22,2 C 17,3 C 0,1 UV-I 0,5 C 60 % 84 % 14 % 1020,8 hPa 0,0 l/m 4,4 km/h (1 Bft) 0 min 0 min 6,1 km/h (2 Bft)
04.10.2011 12:00 22,2 C 17,4 C 0,1 UV-I 0,5 C 60 % 83 % 14 % 1020,8 hPa 0,0 l/m 4,8 km/h (1 Bft) 0 min 0 min 10,6 km/h (2 Bft)
04.10.2011 12:02 22,2 C 17,3 C 0,1 UV-I 0,6 C 60 % 83 % 17 % 1020,8 hPa 0,0 l/m 4,4 km/h (1 Bft) 0 min 0 min 0,0 km/h (0 Bft)
04.10.2011 12:04 22,2 C 17,3 C 0,1 UV-I 0,6 C 60 % 83 % 17 % 1020,8 hPa 0,0 l/m 4,4 km/h (1 Bft) 0 min 0 min 0,0 km/h (0 Bft)
04.10.2011 12:06 22,2 C 17,4 C 0,1 UV-I 0,5 C 60 % 84 % 14 % 1020,7 hPa 0,0 l/m 4,8 km/h (1 Bft) 0 min 0 min 5,8 km/h (2 Bft)
04.10.2011 12:08 22,2 C 17,5 C 0,1 UV-I 0,4 C 60 % 84 % 11 % 1020,7 hPa 0,0 l/m 5,2 km/h (1 Bft) 0 min 0 min 8,4 km/h (2 Bft)
04.10.2011 12:10 22,2 C 17,5 C 0,1 UV-I 0,4 C 60 % 84 % 11 % 1020,7 hPa 0,0 l/m 5,6 km/h (1 Bft) 0 min 0 min 5,1 km/h (1 Bft)
04.10.2011 12:12 22,2 C 17,4 C 0,1 UV-I 0,5 C 60 % 84 % 14 % 1020,7 hPa 0,0 l/m 6,0 km/h (2 Bft) 0 min 0 min 5,5 km/h (1 Bft)
04.10.2011 12:14 22,2 C 17,5 C 0,1 UV-I 0,4 C 60 % 84 % 11 % 1020,7 hPa 0,0 l/m 5,6 km/h (1 Bft) 0 min 0 min 3,9 km/h (1 Bft)
04.10.2011 12:16 22,2 C 17,5 C 0,1 UV-I 0,4 C 60 % 84 % 11 % 1020,7 hPa 0,0 l/m 4,8 km/h (1 Bft) 0 min 0 min 12,2 km/h (2 Bft)
04.10.2011 12:18 22,2 C 17,4 C 0,1 UV-I 0,5 C 60 % 84 % 14 % 1020,7 hPa 0,0 l/m 4,8 km/h (1 Bft) 0 min 0 min 10,0 km/h (2 Bft)
04.10.2011 12:20 22,2 C 17,4 C 0,1 UV-I 0,6 C 60 % 84 % 17 % 1020,7 hPa 0,0 l/m 4,8 km/h (1 Bft) 0 min 0 min 10,9 km/h (2 Bft)
04.10.2011 12:22 22,2 C 17,5 C 0,1 UV-I 0,5 C 60 % 84 % 14 % 1020,7 hPa 0,0 l/m 5,2 km/h (1 Bft) 0 min 0 min 5,5 km/h (1 Bft)
04.10.2011 12:24 22,2 C 17,4 C 0,1 UV-I 0,6 C 60 % 84 % 17 % 1020,7 hPa 0,0 l/m 5,2 km/h (1 Bft) 0 min 0 min 5,5 km/h (1 Bft)
04.10.2011 12:26 22,2 C 17,4 C 0,1 UV-I 0,6 C 60 % 84 % 17 % 1020,6 hPa 0,0 l/m 5,2 km/h (1 Bft) 0 min 0 min 3,9 km/h (1 Bft)
04.10.2011 12:28 22,2 C 17,5 C 0,1 UV-I 0,6 C 60 % 84 % 17 % 1020,6 hPa 0,0 l/m 4,8 km/h (1 Bft) 0 min 0 min 5,5 km/h (1 Bft)
04.10.2011 12:30 22,2 C 17,5 C 0,1 UV-I 0,6 C 61 % 84 % 17 % 1020,6 hPa 0,0 l/m 4,4 km/h (1 Bft) 0 min 0 min 5,8 km/h (2 Bft)
04.10.2011 12:32 22,2 C 17,5 C 0,1 UV-I 0,6 C 61 % 84 % 17 % 1020,6 hPa 0,0 l/m 3,2 km/h (1 Bft) 0 min 0 min 0,0 km/h (0 Bft)
04.10.2011 12:34 22,2 C 17,6 C 0,0 UV-I 0,5 C 61 % 84 % 14 % 1020,6 hPa 0,0 l/m 2,8 km/h (1 Bft) 0 min 0 min 5,5 km/h (1 Bft)
04.10.2011 12:36 22,2 C 17,6 C 0,0 UV-I 0,5 C 61 % 84 % 14 % 1020,6 hPa 0,0 l/m 2,4 km/h (1 Bft) 0 min 0 min 5,1 km/h (1 Bft)
04.10.2011 12:38 22,2 C 17,6 C 0,0 UV-I 0,5 C 61 % 84 % 14 % 1020,6 hPa 0,0 l/m 2,4 km/h (1 Bft) 0 min 0 min 0,0 km/h (0 Bft)
04.10.2011 12:40 22,2 C 17,6 C 0,0 UV-I 0,4 C 61 % 84 % 11 % 1020,6 hPa 0,0 l/m 2,8 km/h (1 Bft) 0 min 0 min 0,0 km/h (0 Bft)
04.10.2011 12:42 22,2 C 17,6 C 0,0 UV-I 0,4 C 61 % 84 % 11 % 1020,6 hPa 0,0 l/m 2,4 km/h (1 Bft) 0 min 0 min 4,5 km/h (1 Bft)
04.10.2011 12:44 22,2 C 17,6 C 0,0 UV-I 0,4 C 61 % 84 % 11 % 1020,6 hPa 0,0 l/m 2,4 km/h (1 Bft) 0 min 0 min 4,5 km/h (1 Bft)
04.10.2011 12:46 22,2 C 17,5 C 0,0 UV-I 0,5 C 61 % 84 % 14 % 1021,1 hPa 0,0 l/m 2,4 km/h (1 Bft) 0 min 0 min 4,2 km/h (1 Bft)
04.10.2011 12:48 22,2 C 17,5 C 0,0 UV-I 0,5 C 61 % 85 % 14 % 1021,1 hPa 0,0 l/m 2,0 km/h (1 Bft) 0 min 0 min 0,0 km/h (0 Bft)
04.10.2011 12:50 22,2 C 17,5 C 0,1 UV-I 0,6 C 61 % 84 % 17 % 1021,1 hPa 0,0 l/m 2,4 km/h (1 Bft) 0 min 0 min 5,5 km/h (1 Bft)
04.10.2011 12:52 22,2 C 17,5 C 0,1 UV-I 0,6 C 61 % 85 % 17 % 1021,1 hPa 0,0 l/m 2,8 km/h (1 Bft) 0 min 0 min 0,0 km/h (0 Bft)
04.10.2011 12:54 22,2 C 17,5 C 0,1 UV-I 0,6 C 61 % 85 % 17 % 1021,1 hPa 0,0 l/m 2,4 km/h (1 Bft) 0 min 0 min 0,0 km/h (0 Bft)
04.10.2011 12:56 22,2 C 17,5 C 0,1 UV-I 0,6 C 61 % 85 % 17 % 1021,1 hPa 0,0 l/m 3,2 km/h (1 Bft) 0 min 0 min 3,9 km/h (1 Bft)
04.10.2011 12:58 22,2 C 17,6 C 0,1 UV-I 0,5 C 61 % 85 % 14 % 1021,1 hPa 0,0 l/m 3,2 km/h (1 Bft) 0 min 0 min 5,5 km/h (1 Bft)
04.10.2011 13:00 22,2 C 17,5 C 0,1 UV-I 0,6 C 61 % 85 % 17 % 1021,1 hPa 0,0 l/m 3,2 km/h (1 Bft) 0 min 0 min 0,0 km/h (0 Bft)
04.10.2011 13:02 22,2 C 17,6 C 0,1 UV-I 0,5 C 61 % 85 % 14 % 1021,1 hPa 0,0 l/m 3,2 km/h (1 Bft) 0 min 0 min 5,5 km/h (1 Bft)
04.10.2011 13:04 22,2 C 17,6 C 0,1 UV-I 0,5 C 61 % 85 % 14 % 1021,1 hPa 0,0 l/m 3,2 km/h (1 Bft) 0 min 0 min 5,5 km/h (1 Bft)
04.10.2011 13:06 22,2 C 17,6 C 0,1 UV-I 0,5 C 61 % 85 % 14 % 1021,2 hPa 0,0 l/m 3,6 km/h (1 Bft) 0 min 0 min 0,0 km/h (0 Bft)
04.10.2011 13:08 22,2 C 17,5 C 0,1 UV-I 0,5 C 61 % 85 % 14 % 1021,2 hPa 0,0 l/m 4,0 km/h (1 Bft) 0 min 0 min 8,4 km/h (2 Bft)
04.10.2011 13:10 22,2 C 17,5 C 0,0 UV-I 0,4 C 61 % 85 % 11 % 1021,2 hPa 0,0 l/m 5,2 km/h (1 Bft) 0 min 0 min 5,5 km/h (1 Bft)
04.10.2011 13:12 22,2 C 17,5 C 0,0 UV-I 0,3 C 61 % 85 % 9 % 1021,2 hPa 0,0 l/m 5,6 km/h (1 Bft) 0 min 0 min 0,0 km/h (0 Bft)
04.10.2011 13:14 22,2 C 17,5 C 0,0 UV-I 0,2 C 61 % 85 % 6 % 1021,2 hPa 0,0 l/m 6,0 km/h (2 Bft) 0 min 0 min 5,8 km/h (2 Bft)
04.10.2011 13:16 22,2 C 17,5 C 0,0 UV-I 0,1 C 61 % 85 % 3 % 1021,2 hPa 0,0 l/m 6,8 km/h (2 Bft) 0 min 0 min 13,2 km/h (3 Bft)
04.10.2011 13:18 22,2 C 17,4 C 0,0 UV-I 0,1 C 61 % 85 % 3 % 1021,2 hPa 0,0 l/m 6,8 km/h (2 Bft) 0 min 0 min 0,0 km/h (0 Bft)
04.10.2011 13:20 22,2 C 17,3 C 0,0 UV-I 0,2 C 61 % 85 % 6 % 1021,2 hPa 0,0 l/m 6,4 km/h (2 Bft) 0 min 0 min 6,4 km/h (2 Bft)
04.10.2011 13:22 22,2 C 17,3 C 0,0 UV-I 0,1 C 62 % 85 % 3 % 1021,2 hPa 0,0 l/m 6,4 km/h (2 Bft) 0 min 0 min 6,4 km/h (2 Bft)
04.10.2011 13:24 22,2 C 17,3 C 0,0 UV-I 0,1 C 62 % 85 % 3 % 1021,2 hPa 0,0 l/m 6,4 km/h (2 Bft) 0 min 0 min 6,4 km/h (2 Bft)
04.10.2011 13:26 22,2 C 17,3 C 0,0 UV-I 0,0 C 62 % 85 % 0 % 1020,8 hPa 0,0 l/m 6,0 km/h (2 Bft) 0 min 0 min 6,8 km/h (2 Bft)
04.10.2011 13:28 22,2 C 17,2 C 0,0 UV-I 0,0 C 62 % 86 % 0 % 1020,8 hPa 0,0 l/m 5,2 km/h (1 Bft) 0 min 0 min 0,0 km/h (0 Bft)
04.10.2011 13:30 22,2 C 17,2 C 0,0 UV-I 0,0 C 62 % 86 % 0 % 1020,8 hPa 0,0 l/m 5,6 km/h (1 Bft) 0 min 0 min 5,5 km/h (1 Bft)
04.10.2011 13:32 22,2 C 17,2 C 0,0 UV-I 0,0 C 62 % 86 % 0 % 1020,8 hPa 0,0 l/m 4,8 km/h (1 Bft) 0 min 0 min 0,0 km/h (0 Bft)
04.10.2011 13:34 22,2 C 17,3 C 0,0 UV-I 0,0 C 62 % 86 % 0 % 1020,8 hPa 0,0 l/m 4,0 km/h (1 Bft) 0 min 0 min 6,4 km/h (2 Bft)
04.10.2011 13:36 22,2 C 17,3 C 0,0 UV-I 0,0 C 62 % 86 % 0 % 1020,8 hPa 0,0 l/m 4,0 km/h (1 Bft) 0 min 0 min 6,4 km/h (2 Bft)
04.10.2011 13:38 22,1 C 17,2 C 0,0 UV-I 0,0 C 62 % 86 % 0 % 1020,8 hPa 0,0 l/m 3,6 km/h (1 Bft) 0 min 0 min 3,9 km/h (1 Bft)
04.10.2011 13:40 22,2 C 17,2 C 0,0 UV-I 0,0 C 62 % 86 % 0 % 1020,8 hPa 0,0 l/m 3,2 km/h (1 Bft) 0 min 0 min 0,0 km/h (0 Bft)
04.10.2011 13:42 22,2 C 17,2 C 0,0 UV-I 0,0 C 62 % 86 % 0 % 1020,8 hPa 0,0 l/m 2,4 km/h (1 Bft) 0 min 0 min 0,0 km/h (0 Bft)
04.10.2011 13:44 22,1 C 17,1 C 0,0 UV-I 0,0 C 62 % 86 % 0 % 1020,8 hPa 0,0 l/m 2,4 km/h (1 Bft) 0 min 0 min 0,0 km/h (0 Bft)
04.10.2011 13:46 22,1 C 17,2 C 0,0 UV-I 0,0 C 62 % 86 % 0 % 1020,9 hPa 0,0 l/m 2,8 km/h (1 Bft) 0 min 0 min 0,0 km/h (0 Bft)
04.10.2011 13:48 22,1 C 17,1 C 0,0 UV-I 0,0 C 62 % 86 % 0 % 1020,9 hPa 0,0 l/m 2,4 km/h (1 Bft) 0 min 0 min 3,9 km/h (1 Bft)
04.10.2011 13:50 22,1 C 17,1 C 0,0 UV-I 0,0 C 62 % 87 % 0 % 1020,9 hPa 0,0 l/m 3,2 km/h (1 Bft) 0 min 2 min 4,2 km/h (1 Bft)
04.10.2011 13:52 22,1 C 17,0 C 0,0 UV-I 0,0 C 62 % 87 % 0 % 1020,9 hPa 0,0 l/m 3,2 km/h (1 Bft) 0 min 0 min 0,0 km/h (0 Bft)
04.10.2011 13:54 22,1 C 17,1 C 0,0 UV-I 0,0 C 62 % 87 % 0 % 1020,9 hPa 0,0 l/m 3,2 km/h (1 Bft) 0 min 0 min 8,7 km/h (2 Bft)
04.10.2011 13:56 22,1 C 16,9 C 0,0 UV-I 0,0 C 62 % 87 % 0 % 1020,9 hPa 0,0 l/m 3,2 km/h (1 Bft) 0 min 0 min 4,5 km/h (1 Bft)
04.10.2011 13:58 22,1 C 16,9 C 0,0 UV-I 0,0 C 62 % 87 % 0 % 1020,9 hPa 0,0 l/m 3,6 km/h (1 Bft) 0 min 0 min 0,0 km/h (0 Bft)
04.10.2011 14:00 22,1 C 16,9 C 0,0 UV-I 0,0 C 62 % 87 % 0 % 1020,9 hPa 0,0 l/m 2,8 km/h (1 Bft) 0 min 0 min 0,0 km/h (0 Bft)
04.10.2011 14:02 22,1 C 17,0 C 0,0 UV-I 0,0 C 62 % 87 % 0 % 1020,9 hPa 0,0 l/m 2,0 km/h (1 Bft) 0 min 0 min 5,1 km/h (1 Bft)
04.10.2011 14:04 22,1 C 16,9 C 0,0 UV-I 0,0 C 62 % 87 % 0 % 1020,9 hPa 0,0 l/m 2,0 km/h (1 Bft) 0 min 0 min 5,1 km/h (1 Bft)
04.10.2011 14:06 22,1 C 16,9 C 0,0 UV-I 0,0 C 62 % 87 % 0 % 1021,0 hPa 0,0 l/m 1,2 km/h (1 Bft) 0 min 0 min 0,0 km/h (0 Bft)
04.10.2011 14:08 22,1 C 17,0 C 0,0 UV-I 0,0 C 62 % 88 % 0 % 1021,0 hPa 0,0 l/m 0,8 km/h (0 Bft) 0 min 0 min 0,0 km/h (0 Bft)
04.10.2011 14:10 22,1 C 16,9 C 0,0 UV-I 0,0 C 63 % 88 % 0 % 1021,0 hPa 0,0 l/m 0,8 km/h (0 Bft) 0 min 0 min 0,0 km/h (0 Bft)
04.10.2011 14:12 22,1 C 16,9 C 0,0 UV-I 0,0 C 63 % 88 % 0 % 1021,0 hPa 0,0 l/m 0,8 km/h (0 Bft) 0 min 0 min 0,0 km/h (0 Bft)
04.10.2011 14:14 22,1 C 16,9 C 0,0 UV-I 0,0 C 63 % 88 % 0 % 1021,0 hPa 0,0 l/m 0,4 km/h (0 Bft) 0 min 0 min 0,0 km/h (0 Bft)
04.10.2011 14:16 22,1 C 16,9 C 0,0 UV-I 0,0 C 63 % 88 % 0 % 1021,0 hPa 0,0 l/m 0,8 km/h (0 Bft) 0 min 0 min 5,8 km/h (2 Bft)
04.10.2011 14:18 22,2 C 16,9 C 0,0 UV-I 0,0 C 63 % 88 % 0 % 1021,0 hPa 0,0 l/m 1,2 km/h (1 Bft) 0 min 0 min 7,1 km/h (2 Bft)
04.10.2011 14:20 22,1 C 16,9 C 0,0 UV-I 0,0 C 63 % 88 % 0 % 1021,0 hPa 0,0 l/m 1,6 km/h (1 Bft) 0 min 0 min 0,0 km/h (0 Bft)
04.10.2011 14:22 22,2 C 17,0 C 0,0 UV-I 0,0 C 63 % 88 % 0 % 1021,0 hPa 0,0 l/m 1,2 km/h (1 Bft) 0 min 0 min 0,0 km/h (0 Bft)
04.10.2011 14:24 22,2 C 17,0 C 0,0 UV-I 0,0 C 63 % 88 % 0 % 1021,0 hPa 0,0 l/m 1,2 km/h (1 Bft) 0 min 0 min 0,0 km/h (0 Bft)
04.10.2011 14:26 22,2 C 17,1 C 0,0 UV-I 0,0 C 63 % 88 % 0 % 1020,9 hPa 0,0 l/m 1,6 km/h (1 Bft) 0 min 0 min 6,1 km/h (2 Bft)
04.10.2011 14:28 22,2 C 17,1 C 0,0 UV-I 0,0 C 63 % 88 % 0 % 1020,9 hPa 0,0 l/m 1,6 km/h (1 Bft) 0 min 0 min 7,4 km/h (2 Bft)
04.10.2011 14:30 22,2 C 17,0 C 0,1 UV-I 0,0 C 63 % 88 % 0 % 1020,9 hPa 0,0 l/m 1,6 km/h (1 Bft) 0 min 0 min 7,1 km/h (2 Bft)
04.10.2011 14:32 22,2 C 17,0 C 0,1 UV-I 0,0 C 63 % 88 % 0 % 1020,9 hPa 0,0 l/m 2,4 km/h (1 Bft) 0 min 0 min 4,5 km/h (1 Bft)
04.10.2011 14:34 22,2 C 17,1 C 0,1 UV-I 0,0 C 63 % 88 % 0 % 1020,9 hPa 0,0 l/m 3,2 km/h (1 Bft) 0 min 0 min 7,1 km/h (2 Bft)
04.10.2011 14:36 22,2 C 17,1 C 0,1 UV-I 0,0 C 63 % 88 % 0 % 1020,9 hPa 0,0 l/m 3,2 km/h (1 Bft) 0 min 0 min 4,5 km/h (1 Bft)
04.10.2011 14:38 22,1 C 17,1 C 0,1 UV-I 0,1 C 63 % 88 % 3 % 1020,9 hPa 0,0 l/m 3,2 km/h (1 Bft) 0 min 0 min 3,9 km/h (1 Bft)
04.10.2011 14:40 22,2 C 17,3 C 0,2 UV-I 0,1 C 63 % 88 % 3 % 1020,9 hPa 0,0 l/m 3,2 km/h (1 Bft) 0 min 0 min 0,0 km/h (0 Bft)
04.10.2011 14:42 22,2 C 17,2 C 0,2 UV-I 0,4 C 63 % 88 % 11 % 1020,9 hPa 0,0 l/m 2,4 km/h (1 Bft) 0 min 0 min 4,2 km/h (1 Bft)
04.10.2011 14:44 22,2 C 17,2 C 0,2 UV-I 0,4 C 63 % 88 % 11 % 1020,9 hPa 0,0 l/m 2,4 km/h (1 Bft) 0 min 0 min 4,2 km/h (1 Bft)
04.10.2011 14:46 22,2 C 17,3 C 0,2 UV-I 0,6 C 63 % 88 % 17 % 1020,9 hPa 0,0 l/m 2,8 km/h (1 Bft) 0 min 0 min 5,5 km/h (1 Bft)
04.10.2011 14:48 22,2 C 17,4 C 0,2 UV-I 0,5 C 63 % 88 % 14 % 1020,9 hPa 0,0 l/m 2,8 km/h (1 Bft) 0 min 0 min 3,2 km/h (1 Bft)
04.10.2011 14:50 22,2 C 17,5 C 0,2 UV-I 0,4 C 63 % 88 % 11 % 1020,9 hPa 0,0 l/m 2,4 km/h (1 Bft) 0 min 0 min 8,4 km/h (2 Bft)
04.10.2011 14:52 22,2 C 17,5 C 0,2 UV-I 0,4 C 63 % 88 % 11 % 1020,9 hPa 0,0 l/m 2,8 km/h (1 Bft) 0 min 0 min 0,0 km/h (0 Bft)
04.10.2011 14:54 22,2 C 17,4 C 0,0 UV-I 0,5 C 63 % 88 % 14 % 1020,9 hPa 0,0 l/m 2,8 km/h (1 Bft) 0 min 0 min 0,0 km/h (0 Bft)
04.10.2011 14:56 22,2 C 17,4 C 0,0 UV-I 0,5 C 63 % 88 % 14 % 1020,9 hPa 0,0 l/m 3,2 km/h (1 Bft) 0 min 0 min 3,9 km/h (1 Bft)
04.10.2011 14:58 22,2 C 17,4 C 0,0 UV-I 0,5 C 63 % 88 % 14 % 1020,9 hPa 0,0 l/m 2,8 km/h (1 Bft) 0 min 0 min 6,8 km/h (2 Bft)
04.10.2011 15:00 22,2 C 17,5 C 0,0 UV-I 0,3 C 63 % 87 % 9 % 1020,9 hPa 0,0 l/m 3,2 km/h (1 Bft) 0 min 0 min 4,8 km/h (1 Bft)
04.10.2011 15:02 22,1 C 17,4 C 0,0 UV-I 0,3 C 63 % 87 % 9 % 1020,9 hPa 0,0 l/m 2,4 km/h (1 Bft) 0 min 2 min 0,0 km/h (0 Bft)
04.10.2011 15:04 22,2 C 17,4 C 0,0 UV-I 0,3 C 63 % 87 % 9 % 1020,9 hPa 0,0 l/m 2,4 km/h (1 Bft) 0 min 2 min 0,0 km/h (0 Bft)
04.10.2011 15:06 22,2 C 17,5 C 0,0 UV-I 0,0 C 63 % 87 % 0 % 1020,7 hPa 0,0 l/m 2,8 km/h (1 Bft) 0 min 2 min 6,8 km/h (2 Bft)
04.10.2011 15:08 22,2 C 17,4 C 0,0 UV-I 0,0 C 63 % 87 % 0 % 1020,7 hPa 0,0 l/m 2,4 km/h (1 Bft) 0 min 0 min 7,7 km/h (2 Bft)
04.10.2011 15:10 22,2 C 17,4 C 0,0 UV-I 0,0 C 63 % 87 % 0 % 1020,7 hPa 0,0 l/m 2,4 km/h (1 Bft) 0 min 0 min 5,8 km/h (2 Bft)
04.10.2011 15:12 22,2 C 17,3 C 0,0 UV-I 0,0 C 63 % 87 % 0 % 1020,7 hPa 0,0 l/m 2,4 km/h (1 Bft) 0 min 0 min 6,1 km/h (2 Bft)
04.10.2011 15:14 22,2 C 17,3 C 0,0 UV-I 0,0 C 63 % 87 % 0 % 1020,7 hPa 0,0 l/m 2,8 km/h (1 Bft) 0 min 0 min 12,2 km/h (2 Bft)
04.10.2011 15:16 22,2 C 17,3 C 0,0 UV-I 0,0 C 63 % 88 % 0 % 1020,7 hPa 0,0 l/m 2,8 km/h (1 Bft) 0 min 0 min 0,0 km/h (0 Bft)
04.10.2011 15:18 22,2 C 17,3 C 0,0 UV-I 0,0 C 63 % 88 % 0 % 1020,7 hPa 0,0 l/m 3,6 km/h (1 Bft) 0 min 0 min 5,8 km/h (2 Bft)
04.10.2011 15:20 22,2 C 17,3 C 0,3 UV-I 0,0 C 63 % 88 % 0 % 1020,7 hPa 0,0 l/m 3,2 km/h (1 Bft) 0 min 0 min 0,0 km/h (0 Bft)
04.10.2011 15:22 22,2 C 17,3 C 0,3 UV-I 0,0 C 63 % 88 % 0 % 1020,7 hPa 0,0 l/m 2,8 km/h (1 Bft) 0 min 0 min 0,0 km/h (0 Bft)
04.10.2011 15:24 22,2 C 17,4 C 0,3 UV-I 0,0 C 63 % 88 % 0 % 1020,7 hPa 0,0 l/m 2,8 km/h (1 Bft) 0 min 0 min 0,0 km/h (0 Bft)
04.10.2011 15:26 22,2 C 17,4 C 0,3 UV-I 0,3 C 63 % 88 % 9 % 1020,9 hPa 0,0 l/m 2,4 km/h (1 Bft) 0 min 0 min 4,5 km/h (1 Bft)
04.10.2011 15:28 22,2 C 17,5 C 0,3 UV-I 0,4 C 63 % 88 % 11 % 1020,9 hPa 0,0 l/m 2,4 km/h (1 Bft) 0 min 0 min 5,8 km/h (2 Bft)
04.10.2011 15:30 22,2 C 17,5 C 0,5 UV-I 0,7 C 63 % 88 % 20 % 1020,9 hPa 0,0 l/m 2,0 km/h (1 Bft) 0 min 0 min 4,8 km/h (1 Bft)
04.10.2011 15:32 22,2 C 17,6 C 0,5 UV-I 0,8 C 63 % 88 % 23 % 1020,9 hPa 0,0 l/m 2,8 km/h (1 Bft) 0 min 0 min 5,5 km/h (1 Bft)
04.10.2011 15:34 22,2 C 17,7 C 0,7 UV-I 1,0 C 63 % 88 % 29 % 1020,9 hPa 0,0 l/m 2,4 km/h (1 Bft) 0 min 0 min 0,0 km/h (0 Bft)
04.10.2011 15:36 22,2 C 17,6 C 0,7 UV-I 1,4 C 63 % 88 % 40 % 1020,9 hPa 0,0 l/m 2,8 km/h (1 Bft) 0 min 0 min 0,0 km/h (0 Bft)
04.10.2011 15:38 22,2 C 17,7 C 0,7 UV-I 1,5 C 63 % 87 % 43 % 1020,9 hPa 0,0 l/m 3,2 km/h (1 Bft) 0 min 0 min 6,1 km/h (2 Bft)
04.10.2011 15:40 22,2 C 17,9 C 0,6 UV-I 1,4 C 63 % 87 % 40 % 1020,9 hPa 0,0 l/m 3,2 km/h (1 Bft) 0 min 0 min 0,0 km/h (0 Bft)
04.10.2011 15:42 22,2 C 17,9 C 0,6 UV-I 1,5 C 63 % 88 % 43 % 1020,9 hPa 0,0 l/m 2,4 km/h (1 Bft) 0 min 0 min 0,0 km/h (0 Bft)
04.10.2011 15:44 22,2 C 17,9 C 0,6 UV-I 1,5 C 63 % 87 % 43 % 1020,9 hPa 0,0 l/m 2,4 km/h (1 Bft) 0 min 0 min 0,0 km/h (0 Bft)
04.10.2011 15:46 22,3 C 18,0 C 0,6 UV-I 1,7 C 63 % 87 % 49 % 1020,8 hPa 0,0 l/m 2,8 km/h (1 Bft) 0 min 0 min 6,8 km/h (2 Bft)
04.10.2011 15:48 22,3 C 18,0 C 0,6 UV-I 1,7 C 63 % 87 % 49 % 1020,8 hPa 0,0 l/m 3,2 km/h (1 Bft) 0 min 0 min 17,7 km/h (3 Bft)
04.10.2011 15:50 22,3 C 18,1 C 0,4 UV-I 1,6 C 63 % 86 % 46 % 1020,8 hPa 0,0 l/m 3,6 km/h (1 Bft) 0 min 0 min 9,0 km/h (2 Bft)
04.10.2011 15:52 22,3 C 18,1 C 0,4 UV-I 1,5 C 63 % 87 % 43 % 1020,8 hPa 0,0 l/m 4,8 km/h (1 Bft) 0 min 0 min 6,1 km/h (2 Bft)
04.10.2011 15:54 22,3 C 18,0 C 0,2 UV-I 1,5 C 63 % 86 % 43 % 1020,8 hPa 0,0 l/m 5,2 km/h (1 Bft) 0 min 0 min 4,8 km/h (1 Bft)
04.10.2011 15:56 22,3 C 18,0 C 0,2 UV-I 1,4 C 63 % 86 % 40 % 1020,8 hPa 0,0 l/m 5,6 km/h (1 Bft) 0 min 0 min 10,6 km/h (2 Bft)
04.10.2011 15:58 22,3 C 18,0 C 0,2 UV-I 1,2 C 63 % 85 % 34 % 1020,8 hPa 0,0 l/m 6,0 km/h (2 Bft) 0 min 0 min 4,2 km/h (1 Bft)
04.10.2011 16:00 22,3 C 18,0 C 0,0 UV-I 1,2 C 63 % 85 % 34 % 1020,8 hPa 0,0 l/m 5,2 km/h (1 Bft) 0 min 0 min 0,0 km/h (0 Bft)
04.10.2011 16:02 22,3 C 18,0 C 0,0 UV-I 1,0 C 63 % 85 % 29 % 1020,8 hPa 0,0 l/m 4,8 km/h (1 Bft) 0 min 0 min 12,2 km/h (2 Bft)
04.10.2011 16:04 22,3 C 18,1 C 0,0 UV-I 0,9 C 63 % 85 % 26 % 1020,8 hPa 0,0 l/m 4,8 km/h (1 Bft) 0 min 0 min 12,2 km/h (2 Bft)
04.10.2011 16:06 22,3 C 18,1 C 0,0 UV-I 0,7 C 63 % 85 % 20 % 1020,6 hPa 0,0 l/m 3,6 km/h (1 Bft) 0 min 0 min 5,8 km/h (2 Bft)
04.10.2011 16:08 22,3 C 18,1 C 0,0 UV-I 0,7 C 63 % 85 % 20 % 1020,6 hPa 0,0 l/m 2,8 km/h (1 Bft) 0 min 0 min 0,0 km/h (0 Bft)
04.10.2011 16:10 22,3 C 18,0 C 0,0 UV-I 0,7 C 63 % 85 % 20 % 1020,6 hPa 0,0 l/m 2,4 km/h (1 Bft) 0 min 0 min 0,0 km/h (0 Bft)
04.10.2011 16:12 22,3 C 18,1 C 0,0 UV-I 0,5 C 63 % 84 % 14 % 1020,6 hPa 0,0 l/m 2,8 km/h (1 Bft) 0 min 0 min 6,1 km/h (2 Bft)
04.10.2011 16:14 22,3 C 18,0 C 0,0 UV-I 0,5 C 63 % 84 % 14 % 1020,6 hPa 0,0 l/m 2,8 km/h (1 Bft) 0 min 0 min 5,1 km/h (1 Bft)
04.10.2011 16:16 22,3 C 18,0 C 0,0 UV-I 0,5 C 63 % 83 % 14 % 1020,6 hPa 0,0 l/m 3,6 km/h (1 Bft) 0 min 0 min 4,2 km/h (1 Bft)
04.10.2011 16:18 22,3 C 18,1 C 0,0 UV-I 0,3 C 63 % 84 % 9 % 1020,6 hPa 0,0 l/m 3,2 km/h (1 Bft) 0 min 0 min 4,2 km/h (1 Bft)
04.10.2011 16:20 22,3 C 18,0 C 0,0 UV-I 0,3 C 63 % 84 % 9 % 1020,6 hPa 0,0 l/m 3,6 km/h (1 Bft) 0 min 0 min 0,0 km/h (0 Bft)
04.10.2011 16:22 22,3 C 18,1 C 0,0 UV-I 0,2 C 63 % 83 % 6 % 1020,6 hPa 0,0 l/m 4,0 km/h (1 Bft) 0 min 0 min 0,0 km/h (0 Bft)
04.10.2011 16:24 22,3 C 18,0 C 0,0 UV-I 0,3 C 62 % 83 % 9 % 1020,6 hPa 0,0 l/m 4,0 km/h (1 Bft) 0 min 0 min 0,0 km/h (0 Bft)
04.10.2011 16:26 22,3 C 18,0 C 0,0 UV-I 0,3 C 62 % 83 % 9 % 1020,2 hPa 0,0 l/m 3,6 km/h (1 Bft) 0 min 0 min 6,1 km/h (2 Bft)
04.10.2011 16:28 22,3 C 18,1 C 0,0 UV-I 0,2 C 62 % 83 % 6 % 1020,2 hPa 0,0 l/m 4,0 km/h (1 Bft) 0 min 0 min 0,0 km/h (0 Bft)
04.10.2011 16:30 22,3 C 18,0 C 0,0 UV-I 0,3 C 62 % 83 % 9 % 1020,2 hPa 0,0 l/m 4,0 km/h (1 Bft) 0 min 0 min 4,5 km/h (1 Bft)
04.10.2011 16:32 22,3 C 18,1 C 0,0 UV-I 0,3 C 62 % 83 % 9 % 1020,2 hPa 0,0 l/m 3,2 km/h (1 Bft) 0 min 0 min 0,0 km/h (0 Bft)
04.10.2011 16:34 22,3 C 18,1 C 0,0 UV-I 0,5 C 62 % 83 % 14 % 1020,2 hPa 0,0 l/m 2,8 km/h (1 Bft) 0 min 0 min 0,0 km/h (0 Bft)
04.10.2011 16:36 22,3 C 18,2 C 0,0 UV-I 0,6 C 62 % 84 % 17 % 1020,2 hPa 0,0 l/m 2,4 km/h (1 Bft) 0 min 0 min 4,2 km/h (1 Bft)
04.10.2011 16:38 22,3 C 18,3 C 0,0 UV-I 0,8 C 62 % 84 % 23 % 1020,2 hPa 0,0 l/m 2,0 km/h (1 Bft) 0 min 0 min 0,0 km/h (0 Bft)
04.10.2011 16:40 22,2 C 18,3 C 0,4 UV-I 1,1 C 62 % 84 % 31 % 1020,2 hPa 0,0 l/m 2,4 km/h (1 Bft) 0 min 0 min 3,9 km/h (1 Bft)
04.10.2011 16:42 22,2 C 18,4 C 0,4 UV-I 1,3 C 62 % 83 % 37 % 1020,2 hPa 0,0 l/m 2,4 km/h (1 Bft) 0 min 0 min 0,0 km/h (0 Bft)
04.10.2011 16:44 22,4 C 18,6 C 0,2 UV-I 1,1 C 62 % 82 % 31 % 1020,2 hPa 0,0 l/m 2,4 km/h (1 Bft) 0 min 0 min 0,0 km/h (0 Bft)
04.10.2011 16:46 22,4 C 18,7 C 0,2 UV-I 1,0 C 62 % 82 % 29 % 1019,6 hPa 0,0 l/m 3,6 km/h (1 Bft) 0 min 0 min 7,7 km/h (2 Bft)
04.10.2011 16:48 22,4 C 18,7 C 0,2 UV-I 1,0 C 62 % 82 % 29 % 1019,6 hPa 0,0 l/m 4,0 km/h (1 Bft) 0 min 0 min 3,5 km/h (1 Bft)
04.10.2011 16:50 22,4 C 18,7 C 0,0 UV-I 0,9 C 62 % 82 % 26 % 1019,6 hPa 0,0 l/m 4,4 km/h (1 Bft) 0 min 0 min 5,1 km/h (1 Bft)
04.10.2011 16:52 22,4 C 18,6 C 0,0 UV-I 0,9 C 62 % 82 % 26 % 1019,6 hPa 0,0 l/m 5,2 km/h (1 Bft) 0 min 0 min 10,3 km/h (2 Bft)
04.10.2011 16:54 22,4 C 18,7 C 0,0 UV-I 0,7 C 62 % 81 % 20 % 1019,6 hPa 0,0 l/m 6,0 km/h (2 Bft) 0 min 0 min 5,1 km/h (1 Bft)
04.10.2011 16:56 22,4 C 18,5 C 0,0 UV-I 0,7 C 62 % 81 % 20 % 1019,6 hPa 0,0 l/m 5,6 km/h (1 Bft) 0 min 0 min 6,8 km/h (2 Bft)
04.10.2011 16:58 22,4 C 18,6 C 0,0 UV-I 0,5 C 62 % 80 % 14 % 1019,6 hPa 0,0 l/m 5,6 km/h (1 Bft) 0 min 0 min 4,5 km/h (1 Bft)
04.10.2011 17:00 22,4 C 18,7 C 0,0 UV-I 0,4 C 62 % 80 % 11 % 1019,6 hPa 0,0 l/m 5,6 km/h (1 Bft) 0 min 0 min 3,9 km/h (1 Bft)
04.10.2011 17:02 22,4 C 18,7 C 0,0 UV-I 0,4 C 62 % 80 % 11 % 1019,6 hPa 0,0 l/m 5,2 km/h (1 Bft) 0 min 0 min 9,0 km/h (2 Bft)
04.10.2011 17:04 22,4 C 18,6 C 0,3 UV-I 0,5 C 62 % 80 % 14 % 1019,6 hPa 0,0 l/m 5,2 km/h (1 Bft) 0 min 0 min 9,0 km/h (2 Bft)
04.10.2011 17:06 22,4 C 18,7 C 0,3 UV-I 0,5 C 62 % 80 % 14 % 1020,2 hPa 0,0 l/m 3,6 km/h (1 Bft) 0 min 0 min 12,9 km/h (3 Bft)
04.10.2011 17:08 22,4 C 18,6 C 0,3 UV-I 0,6 C 62 % 80 % 17 % 1020,2 hPa 0,0 l/m 4,0 km/h (1 Bft) 0 min 0 min 4,2 km/h (1 Bft)
04.10.2011 17:10 22,4 C 18,7 C 0,1 UV-I 0,6 C 62 % 80 % 17 % 1020,2 hPa 0,0 l/m 2,8 km/h (1 Bft) 0 min 0 min 3,2 km/h (1 Bft)
04.10.2011 17:12 22,4 C 18,8 C 0,1 UV-I 0,7 C 62 % 80 % 20 % 1020,2 hPa 0,0 l/m 3,6 km/h (1 Bft) 0 min 0 min 10,9 km/h (2 Bft)
04.10.2011 17:14 22,4 C 18,8 C 0,4 UV-I 0,9 C 61 % 80 % 26 % 1020,2 hPa 0,0 l/m 3,2 km/h (1 Bft) 0 min 0 min 3,9 km/h (1 Bft)
04.10.2011 17:16 22,4 C 18,9 C 0,4 UV-I 1,0 C 61 % 80 % 29 % 1020,2 hPa 0,0 l/m 3,2 km/h (1 Bft) 0 min 0 min 0,0 km/h (0 Bft)
04.10.2011 17:18 22,4 C 18,9 C 0,4 UV-I 1,4 C 61 % 80 % 40 % 1020,2 hPa 0,0 l/m 3,2 km/h (1 Bft) 0 min 0 min 7,7 km/h (2 Bft)
04.10.2011 17:20 22,4 C 19,1 C 0,5 UV-I 1,7 C 62 % 79 % 49 % 1020,2 hPa 0,0 l/m 3,2 km/h (1 Bft) 0 min 0 min 9,3 km/h (2 Bft)
04.10.2011 17:22 22,4 C 19,2 C 0,5 UV-I 2,0 C 61 % 79 % 57 % 1020,2 hPa 0,0 l/m 3,2 km/h (1 Bft) 0 min 0 min 3,2 km/h (1 Bft)
04.10.2011 17:24 22,4 C 19,3 C 0,5 UV-I 1,9 C 61 % 78 % 54 % 1020,2 hPa 0,0 l/m 3,2 km/h (1 Bft) 0 min 0 min 3,2 km/h (1 Bft)
04.10.2011 17:26 22,4 C 19,2 C 0,5 UV-I 2,4 C 61 % 78 % 69 % 1020,6 hPa 0,0 l/m 3,6 km/h (1 Bft) 2 min 0 min 6,8 km/h (2 Bft)
04.10.2011 17:28 22,5 C 19,4 C 0,5 UV-I 2,3 C 61 % 78 % 66 % 1020,6 hPa 0,0 l/m 3,6 km/h (1 Bft) 2 min 0 min 5,1 km/h (1 Bft)
04.10.2011 17:30 22,5 C 19,5 C 0,4 UV-I 2,4 C 61 % 78 % 69 % 1020,6 hPa 0,0 l/m 3,6 km/h (1 Bft) 2 min 0 min 0,0 km/h (0 Bft)
04.10.2011 17:32 22,5 C 19,5 C 0,4 UV-I 2,2 C 61 % 78 % 63 % 1020,6 hPa 0,0 l/m 3,2 km/h (1 Bft) 2 min 0 min 10,3 km/h (2 Bft)
04.10.2011 17:34 22,5 C 19,3 C 0,3 UV-I 2,3 C 61 % 77 % 66 % 1020,6 hPa 0,0 l/m 3,2 km/h (1 Bft) 2 min 0 min 5,8 km/h (2 Bft)
04.10.2011 17:36 22,5 C 19,3 C 0,3 UV-I 2,0 C 61 % 77 % 57 % 1020,6 hPa 0,0 l/m 3,2 km/h (1 Bft) 2 min 0 min 5,5 km/h (1 Bft)
04.10.2011 17:38 22,6 C 19,3 C 0,3 UV-I 1,6 C 61 % 77 % 46 % 1020,6 hPa 0,0 l/m 3,6 km/h (1 Bft) 0 min 0 min 3,2 km/h (1 Bft)
04.10.2011 17:40 22,5 C 19,3 C 0,2 UV-I 1,4 C 61 % 77 % 40 % 1020,6 hPa 0,0 l/m 3,2 km/h (1 Bft) 0 min 0 min 5,5 km/h (1 Bft)
04.10.2011 17:42 22,6 C 19,3 C 0,2 UV-I 1,3 C 61 % 77 % 37 % 1020,6 hPa 0,0 l/m 4,0 km/h (1 Bft) 0 min 0 min 11,9 km/h (2 Bft)
04.10.2011 17:44 22,6 C 19,3 C 0,2 UV-I 1,3 C 61 % 76 % 37 % 1020,6 hPa 0,0 l/m 4,0 km/h (1 Bft) 0 min 0 min 11,9 km/h (2 Bft)
04.10.2011 17:46 22,6 C 19,3 C 0,2 UV-I 1,4 C 61 % 76 % 40 % 1020,2 hPa 0,0 l/m 4,4 km/h (1 Bft) 0 min 0 min 5,5 km/h (1 Bft)
04.10.2011 17:48 22,6 C 19,2 C 0,2 UV-I 1,6 C 61 % 76 % 46 % 1020,2 hPa 0,0 l/m 4,4 km/h (1 Bft) 0 min 0 min 6,1 km/h (2 Bft)
04.10.2011 17:50 22,6 C 19,2 C 0,2 UV-I 1,6 C 61 % 75 % 46 % 1020,2 hPa 0,0 l/m 4,8 km/h (1 Bft) 0 min 0 min 12,6 km/h (3 Bft)
04.10.2011 17:52 22,6 C 19,2 C 0,2 UV-I 1,7 C 60 % 75 % 49 % 1020,2 hPa 0,0 l/m 4,4 km/h (1 Bft) 2 min 0 min 0,0 km/h (0 Bft)
04.10.2011 17:54 22,6 C 19,3 C 0,1 UV-I 1,7 C 60 % 76 % 49 % 1020,2 hPa 0,0 l/m 4,0 km/h (1 Bft) 2 min 0 min 3,2 km/h (1 Bft)
04.10.2011 17:56 22,6 C 19,2 C 0,1 UV-I 1,8 C 60 % 75 % 51 % 1020,2 hPa 0,0 l/m 3,2 km/h (1 Bft) 2 min 0 min 3,2 km/h (1 Bft)
04.10.2011 17:58 22,6 C 19,1 C 0,1 UV-I 1,8 C 60 % 75 % 51 % 1020,2 hPa 0,0 l/m 3,2 km/h (1 Bft) 2 min 0 min 4,2 km/h (1 Bft)
04.10.2011 18:00 22,6 C 19,1 C 0,1 UV-I 1,6 C 60 % 75 % 46 % 1020,2 hPa 0,0 l/m 3,2 km/h (1 Bft) 2 min 0 min 4,2 km/h (1 Bft)
04.10.2011 18:02 22,6 C 19,1 C 0,1 UV-I 1,4 C 60 % 75 % 40 % 1020,2 hPa 0,0 l/m 2,8 km/h (1 Bft) 2 min 0 min 0,0 km/h (0 Bft)
04.10.2011 18:04 22,6 C 19,0 C 0,0 UV-I 1,5 C 60 % 75 % 43 % 1020,2 hPa 0,0 l/m 2,8 km/h (1 Bft) 2 min 0 min 0,0 km/h (0 Bft)
04.10.2011 18:06 22,6 C 19,1 C 0,0 UV-I 0,7 C 60 % 75 % 20 % 1020,5 hPa 0,0 l/m 2,4 km/h (1 Bft) 0 min 0 min 0,0 km/h (0 Bft)
04.10.2011 18:08 22,6 C 19,0 C 0,0 UV-I 0,6 C 60 % 75 % 17 % 1020,5 hPa 0,0 l/m 3,2 km/h (1 Bft) 0 min 0 min 12,2 km/h (2 Bft)
04.10.2011 18:10 22,6 C 18,9 C 0,0 UV-I 0,3 C 60 % 75 % 9 % 1020,5 hPa 0,0 l/m 4,0 km/h (1 Bft) 0 min 0 min 4,5 km/h (1 Bft)
04.10.2011 18:12 22,6 C 18,9 C 0,0 UV-I 0,1 C 60 % 75 % 3 % 1020,5 hPa 0,0 l/m 3,6 km/h (1 Bft) 0 min 0 min 5,5 km/h (1 Bft)
04.10.2011 18:14 22,6 C 18,8 C 0,0 UV-I 0,0 C 60 % 75 % 0 % 1020,5 hPa 0,0 l/m 3,2 km/h (1 Bft) 0 min 0 min 0,0 km/h (0 Bft)
04.10.2011 18:16 22,6 C 18,9 C 0,0 UV-I 0,0 C 60 % 75 % 0 % 1020,5 hPa 0,0 l/m 4,0 km/h (1 Bft) 0 min 0 min 3,9 km/h (1 Bft)
04.10.2011 18:18 22,6 C 18,9 C 0,0 UV-I 0,0 C 60 % 75 % 0 % 1020,5 hPa 0,0 l/m 4,0 km/h (1 Bft) 0 min 0 min 7,4 km/h (2 Bft)
04.10.2011 18:20 22,6 C 18,7 C 0,0 UV-I 0,0 C 60 % 75 % 0 % 1020,5 hPa 0,0 l/m 2,4 km/h (1 Bft) 0 min 0 min 0,0 km/h (0 Bft)
04.10.2011 18:22 22,6 C 18,7 C 0,0 UV-I 0,0 C 60 % 75 % 0 % 1020,5 hPa 0,0 l/m 3,2 km/h (1 Bft) 0 min 0 min 12,2 km/h (2 Bft)
04.10.2011 18:24 22,6 C 18,7 C 0,0 UV-I 0,0 C 59 % 76 % 0 % 1020,5 hPa 0,0 l/m 3,2 km/h (1 Bft) 0 min 0 min 12,2 km/h (2 Bft)
04.10.2011 18:26 22,6 C 18,7 C 0,0 UV-I 0,0 C 59 % 76 % 0 % 1020,4 hPa 0,0 l/m 2,8 km/h (1 Bft) 0 min 0 min 0,0 km/h (0 Bft)
04.10.2011 18:28 22,6 C 18,6 C 0,0 UV-I 0,0 C 59 % 76 % 0 % 1020,4 hPa 0,0 l/m 2,4 km/h (1 Bft) 0 min 0 min 0,0 km/h (0 Bft)
04.10.2011 18:30 22,6 C 18,7 C 0,0 UV-I 0,0 C 59 % 76 % 0 % 1020,4 hPa 0,0 l/m 2,0 km/h (1 Bft) 0 min 0 min 3,2 km/h (1 Bft)
04.10.2011 18:32 22,6 C 18,6 C 0,0 UV-I 0,0 C 59 % 76 % 0 % 1020,4 hPa 0,0 l/m 3,2 km/h (1 Bft) 0 min 0 min 3,9 km/h (1 Bft)
04.10.2011 18:34 22,6 C 18,5 C 0,0 UV-I 0,0 C 59 % 76 % 0 % 1020,4 hPa 0,0 l/m 2,0 km/h (1 Bft) 0 min 0 min 3,2 km/h (1 Bft)
04.10.2011 18:36 22,6 C 18,4 C 0,0 UV-I 0,0 C 59 % 76 % 0 % 1020,4 hPa 0,0 l/m 2,4 km/h (1 Bft) 0 min 0 min 0,0 km/h (0 Bft)
04.10.2011 18:38 22,6 C 18,5 C 0,0 UV-I 0,0 C 59 % 76 % 0 % 1020,4 hPa 0,0 l/m 2,4 km/h (1 Bft) 0 min 0 min 0,0 km/h (0 Bft)
04.10.2011 18:40 22,6 C 18,4 C 0,0 UV-I 0,0 C 59 % 76 % 0 % 1020,4 hPa 0,0 l/m 2,4 km/h (1 Bft) 0 min 0 min 4,2 km/h (1 Bft)
04.10.2011 18:42 22,6 C 18,3 C 0,0 UV-I 0,0 C 59 % 76 % 0 % 1020,4 hPa 0,0 l/m 1,6 km/h (1 Bft) 0 min 0 min 0,0 km/h (0 Bft)
04.10.2011 18:44 22,6 C 18,2 C 0,0 UV-I 0,0 C 59 % 76 % 0 % 1020,4 hPa 0,0 l/m 1,6 km/h (1 Bft) 0 min 0 min 0,0 km/h (0 Bft)
04.10.2011 18:46 22,6 C 18,3 C 0,0 UV-I 0,0 C 59 % 76 % 0 % 1020,4 hPa 0,0 l/m 1,6 km/h (1 Bft) 0 min 0 min 4,8 km/h (1 Bft)
04.10.2011 18:48 22,6 C 18,3 C 0,0 UV-I 0,0 C 59 % 76 % 0 % 1020,4 hPa 0,0 l/m 1,6 km/h (1 Bft) 0 min 0 min 3,2 km/h (1 Bft)
04.10.2011 18:50 22,6 C 18,3 C 0,0 UV-I 0,0 C 59 % 76 % 0 % 1020,4 hPa 0,0 l/m 2,0 km/h (1 Bft) 0 min 0 min 3,9 km/h (1 Bft)
04.10.2011 18:52 22,6 C 18,3 C 0,0 UV-I 0,0 C 59 % 77 % 0 % 1020,4 hPa 0,0 l/m 2,0 km/h (1 Bft) 0 min 0 min 3,9 km/h (1 Bft)
04.10.2011 18:54 22,5 C 18,3 C 0,0 UV-I 0,0 C 59 % 77 % 0 % 1020,4 hPa 0,0 l/m 2,0 km/h (1 Bft) 0 min 0 min 0,0 km/h (0 Bft)
04.10.2011 18:56 22,5 C 18,3 C 0,0 UV-I 0,0 C 59 % 77 % 0 % 1020,4 hPa 0,0 l/m 2,0 km/h (1 Bft) 0 min 0 min 3,5 km/h (1 Bft)
04.10.2011 18:58 22,5 C 18,1 C 0,0 UV-I 0,0 C 59 % 77 % 0 % 1020,4 hPa 0,0 l/m 0,8 km/h (0 Bft) 0 min 0 min 0,0 km/h (0 Bft)
04.10.2011 19:00 22,5 C 18,1 C 0,0 UV-I 0,0 C 59 % 77 % 0 % 1020,4 hPa 0,0 l/m 0,8 km/h (0 Bft) 0 min 0 min 0,0 km/h (0 Bft)
04.10.2011 19:02 22,5 C 18,1 C 0,0 UV-I 0,0 C 59 % 77 % 0 % 1020,4 hPa 0,0 l/m 0,4 km/h (0 Bft) 0 min 0 min 0,0 km/h (0 Bft)
04.10.2011 19:04 22,5 C 18,0 C 0,0 UV-I 0,0 C 59 % 77 % 0 % 1020,4 hPa 0,0 l/m 0,4 km/h (0 Bft) 0 min 0 min 0,0 km/h (0 Bft)
04.10.2011 19:06 22,5 C 18,0 C 0,0 UV-I 0,0 C 59 % 77 % 0 % 1020,7 hPa 0,0 l/m 0,0 km/h (0 Bft) 0 min 0 min 0,0 km/h (0 Bft)
04.10.2011 19:08 22,5 C 18,1 C 0,0 UV-I 0,0 C 59 % 77 % 0 % 1020,7 hPa 0,0 l/m 0,0 km/h (0 Bft) 0 min 0 min 0,0 km/h (0 Bft)
04.10.2011 19:10 22,5 C 17,9 C 0,0 UV-I 0,0 C 59 % 77 % 0 % 1020,7 hPa 0,0 l/m 0,0 km/h (0 Bft) 0 min 0 min 0,0 km/h (0 Bft)
04.10.2011 19:12 22,5 C 17,9 C 0,0 UV-I 0,0 C 59 % 77 % 0 % 1020,7 hPa 0,0 l/m 0,4 km/h (0 Bft) 0 min 0 min 0,0 km/h (0 Bft)
04.10.2011 19:14 22,5 C 17,9 C 0,0 UV-I 0,0 C 59 % 77 % 0 % 1020,7 hPa 0,0 l/m 0,4 km/h (0 Bft) 0 min 0 min 0,0 km/h (0 Bft)
04.10.2011 19:16 22,4 C 17,9 C 0,0 UV-I 0,0 C 59 % 77 % 0 % 1020,7 hPa 0,0 l/m 0,4 km/h (0 Bft) 0 min 0 min 0,0 km/h (0 Bft)
04.10.2011 19:18 22,5 C 17,8 C 0,0 UV-I 0,0 C 59 % 77 % 0 % 1020,7 hPa 0,0 l/m 0,4 km/h (0 Bft) 0 min 0 min 0,0 km/h (0 Bft)
04.10.2011 19:20 22,5 C 17,8 C 0,0 UV-I 0,0 C 59 % 77 % 0 % 1020,7 hPa 0,0 l/m 0,4 km/h (0 Bft) 0 min 0 min 0,0 km/h (0 Bft)
04.10.2011 19:22 22,5 C 17,8 C 0,0 UV-I 0,0 C 59 % 77 % 0 % 1020,7 hPa 0,0 l/m 0,4 km/h (0 Bft) 0 min 0 min 0,0 km/h (0 Bft)
04.10.2011 19:24 22,4 C 17,9 C 0,0 UV-I 0,0 C 59 % 78 % 0 % 1020,7 hPa 0,0 l/m 0,4 km/h (0 Bft) 0 min 0 min 0,0 km/h (0 Bft)
04.10.2011 19:26 22,4 C 17,8 C 0,0 UV-I 0,0 C 59 % 78 % 0 % 1020,8 hPa 0,0 l/m 0,0 km/h (0 Bft) 0 min 0 min 0,0 km/h (0 Bft)
04.10.2011 19:28 22,4 C 17,8 C 0,0 UV-I 0,0 C 59 % 78 % 0 % 1020,8 hPa 0,0 l/m 0,0 km/h (0 Bft) 0 min 0 min 0,0 km/h (0 Bft)
04.10.2011 19:30 22,4 C 17,7 C 0,0 UV-I 0,0 C 59 % 78 % 0 % 1020,8 hPa 0,0 l/m 0,0 km/h (0 Bft) 0 min 0 min 0,0 km/h (0 Bft)
04.10.2011 19:32 22,4 C 17,7 C 0,0 UV-I 0,0 C 59 % 78 % 0 % 1020,8 hPa 0,0 l/m 0,0 km/h (0 Bft) 0 min 0 min 0,0 km/h (0 Bft)
04.10.2011 19:34 22,4 C 17,7 C 0,0 UV-I 0,0 C 59 % 78 % 0 % 1020,8 hPa 0,0 l/m 0,0 km/h (0 Bft) 0 min 0 min 0,0 km/h (0 Bft)
04.10.2011 19:36 22,4 C 17,7 C 0,0 UV-I 0,0 C 59 % 78 % 0 % 1020,8 hPa 0,0 l/m 0,0 km/h (0 Bft) 0 min 0 min 0,0 km/h (0 Bft)
04.10.2011 19:38 22,4 C 17,6 C 0,0 UV-I 0,0 C 59 % 78 % 0 % 1020,8 hPa 0,0 l/m 0,0 km/h (0 Bft) 0 min 0 min 0,0 km/h (0 Bft)
04.10.2011 19:40 22,4 C 17,6 C 0,0 UV-I 0,0 C 59 % 78 % 0 % 1020,8 hPa 0,0 l/m 0,0 km/h (0 Bft) 0 min 0 min 0,0 km/h (0 Bft)
04.10.2011 19:42 22,4 C 17,6 C 0,0 UV-I 0,0 C 59 % 78 % 0 % 1020,8 hPa 0,0 l/m 0,0 km/h (0 Bft) 0 min 0 min 0,0 km/h (0 Bft)
04.10.2011 19:44 22,4 C 17,6 C 0,0 UV-I 0,0 C 59 % 79 % 0 % 1020,8 hPa 0,0 l/m 0,0 km/h (0 Bft) 0 min 0 min 0,0 km/h (0 Bft)
04.10.2011 19:46 22,4 C 17,5 C 0,0 UV-I 0,0 C 59 % 78 % 0 % 1020,6 hPa 0,0 l/m 0,0 km/h (0 Bft) 0 min 0 min 0,0 km/h (0 Bft)
04.10.2011 19:48 22,4 C 17,5 C 0,0 UV-I 0,0 C 59 % 78 % 0 % 1020,6 hPa 0,0 l/m 0,0 km/h (0 Bft) 0 min 0 min 0,0 km/h (0 Bft)
04.10.2011 19:50 22,4 C 17,5 C 0,0 UV-I 0,0 C 59 % 78 % 0 % 1020,6 hPa 0,0 l/m 0,0 km/h (0 Bft) 0 min 0 min 5,8 km/h (2 Bft)
04.10.2011 19:52 22,4 C 17,5 C 0,0 UV-I 0,0 C 59 % 78 % 0 % 1020,6 hPa 0,0 l/m 0,4 km/h (0 Bft) 0 min 0 min 0,0 km/h (0 Bft)
04.10.2011 19:54 22,4 C 17,4 C 0,0 UV-I 0,0 C 59 % 79 % 0 % 1020,6 hPa 0,0 l/m 0,4 km/h (0 Bft) 0 min 0 min 0,0 km/h (0 Bft)
04.10.2011 19:56 22,4 C 17,3 C 0,0 UV-I 0,0 C 59 % 79 % 0 % 1020,6 hPa 0,0 l/m 0,4 km/h (0 Bft) 0 min 0 min 0,0 km/h (0 Bft)
04.10.2011 19:58 22,4 C 17,3 C 0,0 UV-I 0,0 C 59 % 79 % 0 % 1020,6 hPa 0,0 l/m 0,4 km/h (0 Bft) 0 min 0 min 0,0 km/h (0 Bft)
04.10.2011 20:00 22,4 C 17,3 C 0,0 UV-I 0,0 C 59 % 79 % 0 % 1020,6 hPa 0,0 l/m 0,4 km/h (0 Bft) 0 min 0 min 0,0 km/h (0 Bft)
04.10.2011 20:02 22,2 C 17,3 C 0,0 UV-I 0,0 C 59 % 79 % 0 % 1020,6 hPa 0,0 l/m 0,0 km/h (0 Bft) 0 min 0 min 0,0 km/h (0 Bft)
04.10.2011 20:04 22,2 C 17,2 C 0,0 UV-I 0,0 C 59 % 79 % 0 % 1020,6 hPa 0,0 l/m 0,0 km/h (0 Bft) 0 min 0 min 0,0 km/h (0 Bft)
04.10.2011 20:06 22,2 C 17,2 C 0,0 UV-I 0,0 C 59 % 79 % 0 % 1020,8 hPa 0,0 l/m 0,4 km/h (0 Bft) 0 min 0 min 0,0 km/h (0 Bft)
04.10.2011 20:08 22,3 C 17,3 C 0,0 UV-I 0,0 C 59 % 79 % 0 % 1020,8 hPa 0,0 l/m 0,4 km/h (0 Bft) 0 min 0 min 0,0 km/h (0 Bft)
04.10.2011 20:10 22,3 C 17,2 C 0,0 UV-I 0,0 C 59 % 80 % 0 % 1020,8 hPa 0,0 l/m 0,4 km/h (0 Bft) 0 min 0 min 0,0 km/h (0 Bft)
04.10.2011 20:12 22,3 C 17,3 C 0,0 UV-I 0,0 C 59 % 80 % 0 % 1020,8 hPa 0,0 l/m 0,4 km/h (0 Bft) 0 min 0 min 0,0 km/h (0 Bft)
04.10.2011 20:14 22,3 C 17,2 C 0,0 UV-I 0,0 C 59 % 80 % 0 % 1020,8 hPa 0,0 l/m 0,4 km/h (0 Bft) 0 min 0 min 7,7 km/h (2 Bft)
04.10.2011 20:16 22,3 C 17,3 C 0,0 UV-I 0,0 C 59 % 80 % 0 % 1020,8 hPa 0,0 l/m 0,8 km/h (0 Bft) 0 min 0 min 4,2 km/h (1 Bft)
04.10.2011 20:18 22,3 C 17,3 C 0,0 UV-I 0,0 C 59 % 80 % 0 % 1020,8 hPa 0,0 l/m 0,8 km/h (0 Bft) 0 min 0 min 0,0 km/h (0 Bft)
04.10.2011 20:20 22,3 C 17,3 C 0,0 UV-I 0,0 C 59 % 80 % 0 % 1020,8 hPa 0,0 l/m 1,2 km/h (1 Bft) 0 min 0 min 0,0 km/h (0 Bft)
04.10.2011 20:22 22,3 C 17,2 C 0,0 UV-I 0,0 C 59 % 80 % 0 % 1020,8 hPa 0,0 l/m 1,2 km/h (1 Bft) 0 min 0 min 4,5 km/h (1 Bft)
04.10.2011 20:24 22,3 C 17,2 C 0,0 UV-I 0,0 C 59 % 80 % 0 % 1020,8 hPa 0,0 l/m 1,2 km/h (1 Bft) 0 min 0 min 4,5 km/h (1 Bft)
04.10.2011 20:26 22,2 C 17,2 C 0,0 UV-I 0,0 C 59 % 80 % 0 % 1020,9 hPa 0,0 l/m 1,6 km/h (1 Bft) 0 min 0 min 5,1 km/h (1 Bft)
04.10.2011 20:28 22,2 C 17,2 C 0,0 UV-I 0,0 C 59 % 80 % 0 % 1020,9 hPa 0,0 l/m 2,4 km/h (1 Bft) 0 min 0 min 5,5 km/h (1 Bft)
04.10.2011 20:30 22,2 C 17,3 C 0,0 UV-I 0,0 C 59 % 80 % 0 % 1020,9 hPa 0,0 l/m 2,8 km/h (1 Bft) 0 min 0 min 0,0 km/h (0 Bft)
04.10.2011 20:32 22,2 C 17,3 C 0,0 UV-I 0,0 C 59 % 80 % 0 % 1020,9 hPa 0,0 l/m 3,2 km/h (1 Bft) 0 min 0 min 8,4 km/h (2 Bft)
04.10.2011 20:34 22,2 C 17,3 C 0,0 UV-I 0,0 C 59 % 80 % 0 % 1020,9 hPa 0,0 l/m 2,8 km/h (1 Bft) 0 min 0 min 3,2 km/h (1 Bft)
04.10.2011 20:36 22,2 C 17,4 C 0,0 UV-I 0,0 C 60 % 80 % 0 % 1020,9 hPa 0,0 l/m 2,4 km/h (1 Bft) 0 min 0 min 0,0 km/h (0 Bft)
04.10.2011 20:38 22,2 C 17,4 C 0,0 UV-I 0,0 C 59 % 80 % 0 % 1020,9 hPa 0,0 l/m 1,6 km/h (1 Bft) 0 min 0 min 0,0 km/h (0 Bft)
04.10.2011 20:40 22,2 C 17,5 C 0,0 UV-I 0,0 C 59 % 80 % 0 % 1020,9 hPa 0,0 l/m 1,6 km/h (1 Bft) 0 min 0 min 6,1 km/h (2 Bft)
04.10.2011 20:42 22,2 C 17,5 C 0,0 UV-I 0,0 C 60 % 80 % 0 % 1020,9 hPa 0,0 l/m 0,8 km/h (0 Bft) 0 min 0 min 3,2 km/h (1 Bft)
04.10.2011 20:44 22,2 C 17,4 C 0,0 UV-I 0,0 C 60 % 80 % 0 % 1020,9 hPa 0,0 l/m 0,8 km/h (0 Bft) 0 min 0 min 3,2 km/h (1 Bft)
04.10.2011 20:46 22,2 C 17,4 C 0,0 UV-I 0,0 C 60 % 80 % 0 % 1021,1 hPa 0,0 l/m 1,6 km/h (1 Bft) 0 min 0 min 0,0 km/h (0 Bft)
04.10.2011 20:48 22,2 C 17,5 C 0,0 UV-I 0,0 C 60 % 80 % 0 % 1021,1 hPa 0,0 l/m 1,6 km/h (1 Bft) 0 min 0 min 0,0 km/h (0 Bft)
04.10.2011 20:50 22,1 C 17,5 C 0,0 UV-I 0,0 C 60 % 80 % 0 % 1021,1 hPa 0,0 l/m 1,6 km/h (1 Bft) 0 min 0 min 3,2 km/h (1 Bft)
04.10.2011 20:52 22,2 C 17,5 C 0,0 UV-I 0,0 C 60 % 80 % 0 % 1021,1 hPa 0,0 l/m 1,2 km/h (1 Bft) 0 min 0 min 0,0 km/h (0 Bft)
04.10.2011 20:54 22,2 C 17,5 C 0,0 UV-I 0,0 C 60 % 80 % 0 % 1021,1 hPa 0,0 l/m 1,2 km/h (1 Bft) 0 min 0 min 0,0 km/h (0 Bft)
04.10.2011 20:56 22,1 C 17,5 C 0,0 UV-I 0,0 C 60 % 80 % 0 % 1021,1 hPa 0,0 l/m 0,4 km/h (0 Bft) 0 min 0 min 0,0 km/h (0 Bft)
04.10.2011 20:58 22,1 C 17,5 C 0,0 UV-I 0,0 C 60 % 80 % 0 % 1021,1 hPa 0,0 l/m 0,4 km/h (0 Bft) 0 min 0 min 0,0 km/h (0 Bft)
04.10.2011 21:00 22,1 C 17,6 C 0,0 UV-I 0,0 C 60 % 80 % 0 % 1021,1 hPa 0,0 l/m 0,8 km/h (0 Bft) 0 min 0 min 0,0 km/h (0 Bft)
04.10.2011 21:02 22,1 C 17,6 C 0,0 UV-I 0,0 C 60 % 80 % 0 % 1021,1 hPa 0,0 l/m 0,4 km/h (0 Bft) 0 min 0 min 0,0 km/h (0 Bft)
04.10.2011 21:04 22,1 C 17,6 C 0,0 UV-I 0,0 C 60 % 80 % 0 % 1021,1 hPa 0,0 l/m 0,4 km/h (0 Bft) 0 min 0 min 0,0 km/h (0 Bft)
04.10.2011 21:06 22,1 C 17,6 C 0,0 UV-I 0,0 C 60 % 80 % 0 % 1020,8 hPa 0,0 l/m 0,8 km/h (0 Bft) 0 min 0 min 5,5 km/h (1 Bft)
04.10.2011 21:08 22,1 C 17,6 C 0,0 UV-I 0,0 C 60 % 79 % 0 % 1020,8 hPa 0,0 l/m 0,8 km/h (0 Bft) 0 min 0 min 0,0 km/h (0 Bft)
04.10.2011 21:10 22,1 C 17,7 C 0,0 UV-I 0,0 C 60 % 79 % 0 % 1020,8 hPa 0,0 l/m 0,8 km/h (0 Bft) 0 min 0 min 0,0 km/h (0 Bft)
04.10.2011 21:12 22,1 C 17,7 C 0,0 UV-I 0,0 C 60 % 79 % 0 % 1020,8 hPa 0,0 l/m 0,8 km/h (0 Bft) 0 min 0 min 3,2 km/h (1 Bft)
04.10.2011 21:14 22,1 C 17,6 C 0,0 UV-I 0,0 C 60 % 79 % 0 % 1020,8 hPa 0,0 l/m 1,6 km/h (1 Bft) 0 min 0 min 6,4 km/h (2 Bft)
04.10.2011 21:16 22,1 C 17,6 C 0,0 UV-I 0,0 C 60 % 79 % 0 % 1020,8 hPa 0,0 l/m 2,0 km/h (1 Bft) 0 min 0 min 3,9 km/h (1 Bft)
04.10.2011 21:18 22,1 C 17,7 C 0,0 UV-I 0,0 C 60 % 79 % 0 % 1020,8 hPa 0,0 l/m 1,6 km/h (1 Bft) 0 min 0 min 0,0 km/h (0 Bft)
04.10.2011 21:20 22,1 C 17,6 C 0,0 UV-I 0,0 C 60 % 79 % 0 % 1020,8 hPa 0,0 l/m 1,6 km/h (1 Bft) 0 min 0 min 4,2 km/h (1 Bft)
04.10.2011 21:22 22,1 C 17,6 C 0,0 UV-I 0,0 C 60 % 79 % 0 % 1020,8 hPa 0,0 l/m 1,6 km/h (1 Bft) 0 min 0 min 0,0 km/h (0 Bft)
04.10.2011 21:24 22,1 C 17,6 C 0,0 UV-I 0,0 C 60 % 79 % 0 % 1020,8 hPa 0,0 l/m 1,6 km/h (1 Bft) 0 min 0 min 0,0 km/h (0 Bft)
04.10.2011 21:26 22,1 C 17,6 C 0,0 UV-I 0,0 C 60 % 79 % 0 % 1020,8 hPa 0,0 l/m 0,8 km/h (0 Bft) 0 min 0 min 0,0 km/h (0 Bft)
04.10.2011 21:28 22,1 C 17,6 C 0,0 UV-I 0,0 C 60 % 79 % 0 % 1020,8 hPa 0,0 l/m 1,6 km/h (1 Bft) 0 min 0 min 4,5 km/h (1 Bft)
04.10.2011 21:30 22,1 C 17,6 C 0,0 UV-I 0,0 C 60 % 79 % 0 % 1020,8 hPa 0,0 l/m 2,0 km/h (1 Bft) 0 min 0 min 7,7 km/h (2 Bft)
04.10.2011 21:32 22,1 C 17,6 C 0,0 UV-I 0,0 C 59 % 79 % 0 % 1020,8 hPa 0,0 l/m 2,0 km/h (1 Bft) 0 min 0 min 0,0 km/h (0 Bft)
04.10.2011 21:34 22,1 C 17,6 C 0,0 UV-I 0,0 C 59 % 79 % 0 % 1020,8 hPa 0,0 l/m 2,8 km/h (1 Bft) 0 min 0 min 0,0 km/h (0 Bft)
04.10.2011 21:36 22,1 C 17,6 C 0,0 UV-I 0,0 C 59 % 79 % 0 % 1020,8 hPa 0,0 l/m 2,4 km/h (1 Bft) 0 min 0 min 0,0 km/h (0 Bft)
04.10.2011 21:38 22,0 C 17,6 C 0,0 UV-I 0,0 C 59 % 79 % 0 % 1020,8 hPa 0,0 l/m 2,0 km/h (1 Bft) 0 min 0 min 0,0 km/h (0 Bft)
04.10.2011 21:40 22,1 C 17,6 C 0,0 UV-I 0,0 C 59 % 79 % 0 % 1020,8 hPa 0,0 l/m 1,6 km/h (1 Bft) 0 min 0 min 0,0 km/h (0 Bft)
04.10.2011 21:42 22,0 C 17,6 C 0,0 UV-I 0,0 C 59 % 79 % 0 % 1020,8 hPa 0,0 l/m 1,2 km/h (1 Bft) 0 min 0 min 5,1 km/h (1 Bft)
04.10.2011 21:44 22,0 C 17,6 C 0,0 UV-I 0,0 C 59 % 79 % 0 % 1020,8 hPa 0,0 l/m 1,2 km/h (1 Bft) 0 min 0 min 5,1 km/h (1 Bft)
04.10.2011 21:46 22,0 C 17,6 C 0,0 UV-I 0,0 C 59 % 79 % 0 % 1020,8 hPa 0,0 l/m 1,2 km/h (1 Bft) 0 min 0 min 0,0 km/h (0 Bft)
04.10.2011 21:48 22,0 C 17,6 C 0,0 UV-I 0,0 C 59 % 79 % 0 % 1020,8 hPa 0,0 l/m 1,2 km/h (1 Bft) 0 min 0 min 0,0 km/h (0 Bft)
04.10.2011 21:50 22,0 C 17,7 C 0,0 UV-I 0,0 C 59 % 79 % 0 % 1020,8 hPa 0,0 l/m 1,6 km/h (1 Bft) 0 min 0 min 0,0 km/h (0 Bft)
04.10.2011 21:52 22,0 C 17,7 C 0,0 UV-I 0,0 C 59 % 78 % 0 % 1020,8 hPa 0,0 l/m 1,6 km/h (1 Bft) 0 min 0 min 0,0 km/h (0 Bft)
04.10.2011 21:54 22,0 C 17,7 C 0,0 UV-I 0,0 C 59 % 78 % 0 % 1020,8 hPa 0,0 l/m 1,2 km/h (1 Bft) 0 min 0 min 3,2 km/h (1 Bft)
04.10.2011 21:56 22,0 C 17,7 C 0,0 UV-I 0,0 C 59 % 78 % 0 % 1020,8 hPa 0,0 l/m 1,6 km/h (1 Bft) 0 min 0 min 4,2 km/h (1 Bft)
04.10.2011 21:58 22,0 C 17,7 C 0,0 UV-I 0,0 C 59 % 78 % 0 % 1020,8 hPa 0,0 l/m 1,6 km/h (1 Bft) 0 min 0 min 4,5 km/h (1 Bft)
04.10.2011 22:00 22,0 C 17,7 C 0,0 UV-I 0,0 C 59 % 78 % 0 % 1020,8 hPa 0,0 l/m 2,8 km/h (1 Bft) 0 min 0 min 8,0 km/h (2 Bft)
04.10.2011 22:02 22,0 C 17,7 C 0,0 UV-I 0,0 C 59 % 78 % 0 % 1020,8 hPa 0,0 l/m 2,4 km/h (1 Bft) 0 min 0 min 4,8 km/h (1 Bft)
04.10.2011 22:04 22,0 C 17,7 C 0,0 UV-I 0,0 C 59 % 78 % 0 % 1020,8 hPa 0,0 l/m 2,4 km/h (1 Bft) 0 min 0 min 4,8 km/h (1 Bft)
04.10.2011 22:06 22,0 C 17,7 C 0,0 UV-I 0,0 C 59 % 78 % 0 % 1020,8 hPa 0,0 l/m 2,8 km/h (1 Bft) 0 min 0 min 0,0 km/h (0 Bft)
04.10.2011 22:08 22,0 C 17,7 C 0,0 UV-I 0,0 C 59 % 78 % 0 % 1020,8 hPa 0,0 l/m 2,8 km/h (1 Bft) 0 min 0 min 7,1 km/h (2 Bft)
04.10.2011 22:10 22,0 C 17,7 C 0,0 UV-I 0,0 C 59 % 78 % 0 % 1020,8 hPa 0,0 l/m 2,8 km/h (1 Bft) 0 min 0 min 6,1 km/h (2 Bft)
04.10.2011 22:12 22,0 C 17,7 C 0,0 UV-I 0,0 C 59 % 78 % 0 % 1020,8 hPa 0,0 l/m 2,4 km/h (1 Bft) 0 min 0 min 9,7 km/h (2 Bft)
04.10.2011 22:14 22,0 C 17,7 C 0,0 UV-I 0,0 C 59 % 78 % 0 % 1020,8 hPa 0,0 l/m 2,8 km/h (1 Bft) 0 min 0 min 13,2 km/h (3 Bft)
04.10.2011 22:16 22,0 C 17,7 C 0,0 UV-I 0,0 C 59 % 77 % 0 % 1020,8 hPa 0,0 l/m 3,6 km/h (1 Bft) 0 min 0 min 3,9 km/h (1 Bft)
04.10.2011 22:18 22,0 C 17,7 C 0,0 UV-I 0,0 C 59 % 77 % 0 % 1020,8 hPa 0,0 l/m 3,6 km/h (1 Bft) 0 min 0 min 4,5 km/h (1 Bft)
04.10.2011 22:20 22,0 C 17,7 C 0,0 UV-I 0,0 C 59 % 77 % 0 % 1020,8 hPa 0,0 l/m 3,6 km/h (1 Bft) 0 min 0 min 0,0 km/h (0 Bft)
04.10.2011 22:22 22,0 C 17,7 C 0,0 UV-I 0,0 C 59 % 77 % 0 % 1020,8 hPa 0,0 l/m 3,6 km/h (1 Bft) 0 min 0 min 3,9 km/h (1 Bft)
04.10.2011 22:24 22,0 C 17,7 C 0,0 UV-I 0,0 C 59 % 77 % 0 % 1020,8 hPa 0,0 l/m 3,6 km/h (1 Bft) 0 min 0 min 3,9 km/h (1 Bft)
04.10.2011 22:26 22,0 C 17,7 C 0,0 UV-I 0,0 C 59 % 77 % 0 % 1021,0 hPa 0,0 l/m 3,2 km/h (1 Bft) 0 min 0 min 4,2 km/h (1 Bft)
04.10.2011 22:28 22,0 C 17,7 C 0,0 UV-I 0,0 C 59 % 77 % 0 % 1021,0 hPa 0,0 l/m 4,0 km/h (1 Bft) 0 min 0 min 7,7 km/h (2 Bft)
04.10.2011 22:30 22,0 C 17,7 C 0,0 UV-I 0,0 C 59 % 76 % 0 % 1021,0 hPa 0,0 l/m 4,8 km/h (1 Bft) 0 min 0 min 10,6 km/h (2 Bft)
04.10.2011 22:32 22,0 C 17,7 C 0,0 UV-I 0,0 C 59 % 76 % 0 % 1021,0 hPa 0,0 l/m 5,2 km/h (1 Bft) 0 min 0 min 5,1 km/h (1 Bft)
04.10.2011 22:34 21,9 C 17,7 C 0,0 UV-I 0,0 C 59 % 76 % 0 % 1021,0 hPa 0,0 l/m 5,6 km/h (1 Bft) 0 min 0 min 9,3 km/h (2 Bft)
04.10.2011 22:36 21,9 C 17,7 C 0,0 UV-I 0,0 C 59 % 76 % 0 % 1021,0 hPa 0,0 l/m 5,6 km/h (1 Bft) 0 min 0 min 6,4 km/h (2 Bft)
04.10.2011 22:38 21,9 C 17,7 C 0,0 UV-I 0,0 C 59 % 76 % 0 % 1021,0 hPa 0,0 l/m 5,6 km/h (1 Bft) 0 min 0 min 3,5 km/h (1 Bft)
04.10.2011 22:40 21,9 C 17,7 C 0,0 UV-I 0,0 C 59 % 76 % 0 % 1021,0 hPa 0,0 l/m 4,8 km/h (1 Bft) 0 min 0 min 0,0 km/h (0 Bft)
04.10.2011 22:42 21,9 C 17,7 C 0,0 UV-I 0,0 C 59 % 76 % 0 % 1021,0 hPa 0,0 l/m 4,0 km/h (1 Bft) 0 min 0 min 3,5 km/h (1 Bft)
04.10.2011 22:44 21,9 C 17,7 C 0,0 UV-I 0,0 C 59 % 76 % 0 % 1021,0 hPa 0,0 l/m 4,0 km/h (1 Bft) 0 min 0 min 3,5 km/h (1 Bft)
04.10.2011 22:46 21,9 C 17,7 C 0,0 UV-I 0,0 C 59 % 76 % 0 % 1021,2 hPa 0,0 l/m 4,0 km/h (1 Bft) 0 min 0 min 4,5 km/h (1 Bft)
04.10.2011 22:48 21,9 C 17,7 C 0,0 UV-I 0,0 C 59 % 76 % 0 % 1021,2 hPa 0,0 l/m 4,0 km/h (1 Bft) 0 min 0 min 7,7 km/h (2 Bft)
04.10.2011 22:50 21,9 C 17,7 C 0,0 UV-I 0,0 C 59 % 76 % 0 % 1021,2 hPa 0,0 l/m 3,6 km/h (1 Bft) 0 min 0 min 8,4 km/h (2 Bft)
04.10.2011 22:52 21,9 C 17,6 C 0,0 UV-I 0,0 C 59 % 76 % 0 % 1021,2 hPa 0,0 l/m 4,0 km/h (1 Bft) 0 min 0 min 0,0 km/h (0 Bft)
04.10.2011 22:54 21,9 C 17,6 C 0,0 UV-I 0,0 C 59 % 76 % 0 % 1021,2 hPa 0,0 l/m 5,6 km/h (1 Bft) 0 min 0 min 14,8 km/h (3 Bft)
04.10.2011 22:56 21,9 C 17,7 C 0,0 UV-I 0,0 C 59 % 76 % 0 % 1021,2 hPa 0,0 l/m 5,2 km/h (1 Bft) 0 min 0 min 7,4 km/h (2 Bft)
04.10.2011 22:58 21,9 C 17,7 C 0,0 UV-I 0,0 C 59 % 76 % 0 % 1021,2 hPa 0,0 l/m 6,0 km/h (2 Bft) 0 min 0 min 27,4 km/h (4 Bft)
04.10.2011 23:00 21,9 C 17,6 C 0,0 UV-I 0,0 C 59 % 76 % 0 % 1021,2 hPa 0,0 l/m 6,0 km/h (2 Bft) 0 min 0 min 9,0 km/h (2 Bft)
04.10.2011 23:02 21,8 C 17,7 C 0,0 UV-I 0,0 C 59 % 76 % 0 % 1021,2 hPa 0,0 l/m 6,8 km/h (2 Bft) 0 min 0 min 7,4 km/h (2 Bft)
04.10.2011 23:04 21,8 C 17,7 C 0,0 UV-I 0,0 C 59 % 76 % 0 % 1021,2 hPa 0,0 l/m 6,8 km/h (2 Bft) 0 min 0 min 7,4 km/h (2 Bft)
04.10.2011 23:06 21,9 C 17,7 C 0,0 UV-I 0,0 C 59 % 76 % 0 % 1021,1 hPa 0,0 l/m 6,4 km/h (2 Bft) 0 min 0 min 3,5 km/h (1 Bft)
04.10.2011 23:08 21,9 C 17,7 C 0,0 UV-I 0,0 C 58 % 75 % 0 % 1021,1 hPa 0,0 l/m 6,8 km/h (2 Bft) 0 min 0 min 8,0 km/h (2 Bft)
04.10.2011 23:10 21,8 C 17,7 C 0,0 UV-I 0,0 C 58 % 75 % 0 % 1021,1 hPa 0,0 l/m 6,4 km/h (2 Bft) 0 min 0 min 3,5 km/h (1 Bft)
04.10.2011 23:12 21,8 C 17,7 C 0,0 UV-I 0,0 C 58 % 75 % 0 % 1021,1 hPa 0,0 l/m 6,4 km/h (2 Bft) 0 min 0 min 7,4 km/h (2 Bft)
04.10.2011 23:14 21,8 C 17,7 C 0,0 UV-I 0,0 C 58 % 75 % 0 % 1021,1 hPa 0,0 l/m 6,0 km/h (2 Bft) 0 min 0 min 5,8 km/h (2 Bft)
04.10.2011 23:16 21,8 C 17,7 C 0,0 UV-I 0,0 C 58 % 75 % 0 % 1021,1 hPa 0,0 l/m 5,2 km/h (1 Bft) 0 min 0 min 4,2 km/h (1 Bft)
04.10.2011 23:18 21,8 C 17,6 C 0,0 UV-I 0,0 C 58 % 75 % 0 % 1021,1 hPa 0,0 l/m 4,4 km/h (1 Bft) 0 min 0 min 0,0 km/h (0 Bft)
04.10.2011 23:20 21,8 C 17,6 C 0,0 UV-I 0,0 C 58 % 76 % 0 % 1021,1 hPa 0,0 l/m 3,6 km/h (1 Bft) 0 min 0 min 3,5 km/h (1 Bft)
04.10.2011 23:22 21,8 C 17,6 C 0,0 UV-I 0,0 C 58 % 76 % 0 % 1021,1 hPa 0,0 l/m 3,2 km/h (1 Bft) 0 min 0 min 5,1 km/h (1 Bft)
04.10.2011 23:24 21,8 C 17,7 C 0,0 UV-I 0,0 C 58 % 76 % 0 % 1021,1 hPa 0,0 l/m 3,2 km/h (1 Bft) 0 min 0 min 5,1 km/h (1 Bft)
04.10.2011 23:26 21,8 C 17,7 C 0,0 UV-I 0,0 C 58 % 76 % 0 % 1021,1 hPa 0,0 l/m 2,0 km/h (1 Bft) 0 min 0 min 0,0 km/h (0 Bft)
04.10.2011 23:28 21,8 C 17,6 C 0,0 UV-I 0,0 C 59 % 76 % 0 % 1021,1 hPa 0,0 l/m 1,6 km/h (1 Bft) 0 min 0 min 6,8 km/h (2 Bft)
04.10.2011 23:30 21,8 C 17,6 C 0,0 UV-I 0,0 C 58 % 76 % 0 % 1021,1 hPa 0,0 l/m 2,0 km/h (1 Bft) 0 min 0 min 0,0 km/h (0 Bft)
04.10.2011 23:32 21,8 C 17,5 C 0,0 UV-I 0,0 C 58 % 76 % 0 % 1021,1 hPa 0,0 l/m 2,0 km/h (1 Bft) 0 min 0 min 4,8 km/h (1 Bft)
04.10.2011 23:34 21,8 C 17,5 C 0,0 UV-I 0,0 C 59 % 76 % 0 % 1021,1 hPa 0,0 l/m 2,4 km/h (1 Bft) 0 min 0 min 4,2 km/h (1 Bft)
04.10.2011 23:36 21,8 C 17,5 C 0,0 UV-I 0,0 C 59 % 76 % 0 % 1021,1 hPa 0,0 l/m 2,4 km/h (1 Bft) 0 min 0 min 0,0 km/h (0 Bft)
04.10.2011 23:38 21,8 C 17,5 C 0,0 UV-I 0,0 C 59 % 77 % 0 % 1021,1 hPa 0,0 l/m 2,8 km/h (1 Bft) 0 min 0 min 7,1 km/h (2 Bft)
04.10.2011 23:40 21,8 C 17,5 C 0,0 UV-I 0,0 C 58 % 77 % 0 % 1021,1 hPa 0,0 l/m 2,8 km/h (1 Bft) 0 min 0 min 3,2 km/h (1 Bft)
04.10.2011 23:42 21,8 C 17,5 C 0,0 UV-I 0,0 C 59 % 77 % 0 % 1021,1 hPa 0,0 l/m 3,6 km/h (1 Bft) 0 min 0 min 5,8 km/h (2 Bft)
04.10.2011 23:44 21,8 C 17,5 C 0,0 UV-I 0,0 C 59 % 77 % 0 % 1021,1 hPa 0,0 l/m 3,6 km/h (1 Bft) 0 min 0 min 5,8 km/h (2 Bft)
04.10.2011 23:46 21,8 C 17,5 C 0,0 UV-I 0,0 C 59 % 77 % 0 % 1020,8 hPa 0,0 l/m 2,8 km/h (1 Bft) 0 min 0 min 0,0 km/h (0 Bft)
04.10.2011 23:48 21,8 C 17,5 C 0,0 UV-I 0,0 C 59 % 77 % 0 % 1020,8 hPa 0,0 l/m 2,8 km/h (1 Bft) 0 min 0 min 0,0 km/h (0 Bft)
04.10.2011 23:50 21,8 C 17,5 C 0,0 UV-I 0,0 C 59 % 77 % 0 % 1020,8 hPa 0,0 l/m 2,8 km/h (1 Bft) 0 min 0 min 6,8 km/h (2 Bft)
04.10.2011 23:52 21,8 C 17,5 C 0,0 UV-I 0,0 C 59 % 77 % 0 % 1020,8 hPa 0,0 l/m 3,6 km/h (1 Bft) 0 min 0 min 10,3 km/h (2 Bft)
04.10.2011 23:54 21,8 C 17,5 C 0,0 UV-I 0,0 C 59 % 77 % 0 % 1020,8 hPa 0,0 l/m 4,0 km/h (1 Bft) 0 min 0 min 18,7 km/h (3 Bft)
04.10.2011 23:56 21,8 C 17,5 C 0,0 UV-I 0,0 C 59 % 77 % 0 % 1020,8 hPa 0,0 l/m 4,4 km/h (1 Bft) 0 min 0 min 8,7 km/h (2 Bft)
04.10.2011 23:58 21,8 C 17,5 C 0,0 UV-I 0,0 C 59 % 77 % 0 % 1020,8 hPa 0,0 l/m 5,2 km/h (1 Bft) 0 min 0 min 3,2 km/h (1 Bft)
_ Min-Zeit 23:02 08:24 00:00 00:00 04:46 00:00 00:00 06:26 - 02:12 - - 00:04
Minimum _ 21,8 C 15,5 C 0,0 UV-I 0,0 C 52 % 67 % 0 % 1018,1 hPa - 0,0 km/h (0 Bft) - - 0,0 km/h (0 Bft)
_ Max-Zeit 00:00 00:00 15:34 17:26 14:10 14:08 17:26 13:06 00:00 13:16 08:48 13:50 22:58
Maximum _ 23,6 C 19,5 C 0,7 UV-I 2,4 C 63 % 88 % 69 % 1021,2 hPa 0,0 l/m 6,8 km/h
SW (2 Bft)
2 min 2 min 27,4 km/h
W (4 Bft)
Durchschnitt _ 22,4 C 17,4 C 0,0 UV-I 0,2 C 57 % 78 % 7 % 1020,0 hPa #0,0 l/m 2,2 km/h (1 Bft) #30 min. #8 min. 3,0 km/h (1 Bft)
© 2012 W. Hausmann